[[{"header":{"parameterUnit":"m.s-1","parameterCategory":1,"la1":30.6,"la2":29.2853,"lo1":-89.7004,"lo2":-87.6739,"dx":0.0162,"dy":0.0183,"nx":112,"ny":82,"refTime":"2022-12-25T18:00:00:Z","depth":0,"parameterNumber":2,"parameterNumberName":"U-component_of_WINDS"},"data":[0.0,0.0,0.0,0.0,0.0,0.0,0.0,0.0,0.0,0.0,0.0,0.0,0.0,0.0,0.0,0.0,0.0,0.0,0.0,0.0,0.0,0.0,0.0,0.0,0.0,0.0,0.0,0.0,0.0,0.0,0.0,0.0,0.0,0.0,0.0,0.0,0.0,0.0,0.0,0.0,0.0,0.0,0.0,0.0,0.0,0.0,0.0,0.0,0.0,0.0,0.0,0.0,0.0,0.0,0.0,0.0,0.0,0.0,0.0,0.0,0.0,0.0,0.0,0.0,0.0,0.0,0.0,0.0,0.0,0.0,0.0,0.0,0.0,0.0,0.0,0.0,0.0,0.0,0.0,0.0,0.0,0.0,0.0,0.0,0.0,0.0,0.0,0.0,0.0,0.0,2.8206,3.1056,3.5522,3.7735,3.6323,3.4571,3.085,2.4499,0.0,0.0,0.0,0.0,0.0,0.0,0.0,0.0,0.0,0.0,0.0,0.0,0.0,0.0,0.0,0.0,0.0,0.0,0.0,0.0,0.0,0.0,0.0,0.0,0.0,0.0,0.0,0.0,0.0,0.0,0.0,0.0,0.0,0.0,0.0,0.0,0.0,0.0,0.0,0.0,0.0,0.0,0.0,0.0,0.0,0.0,0.0,0.0,0.0,0.0,0.0,0.0,0.0,0.0,0.0,0.0,0.0,0.0,0.0,0.0,0.0,0.0,0.0,0.0,0.0,0.0,0.0,0.0,0.0,0.0,0.0,0.0,0.0,0.0,0.0,0.0,0.0,0.0,0.0,0.0,0.0,0.0,0.0,0.0,0.0,0.0,0.0,0.0,0.0,0.0,0.0,0.0,0.0,0.0,0.0,0.0,0.0,0.0,0.0,0.0,0.0,0.0,0.0,0.0,2.7285,3.4406,3.7054,3.819,3.7935,3.5411,3.1562,2.6237,0.0,0.0,0.0,0.0,0.0,0.0,0.0,0.0,0.0,0.0,0.0,0.0,0.0,0.0,0.0,0.0,0.0,0.0,0.0,0.0,0.0,0.0,0.0,0.0,0.0,0.0,0.0,0.0,0.0,0.0,0.0,0.0,0.0,0.0,0.0,0.0,0.0,0.0,0.0,0.0,0.0,0.0,0.0,0.0,0.0,0.0,0.0,0.0,0.0,0.0,0.0,0.0,0.0,0.0,0.0,0.0,0.0,0.0,0.0,0.0,0.0,0.0,0.0,0.0,0.0,0.0,0.0,0.0,0.0,0.0,0.0,0.0,0.0,0.0,0.0,0.0,0.0,0.0,0.0,0.0,0.0,0.0,0.0,0.0,0.0,0.0,0.0,0.0,0.0,0.0,0.0,0.0,0.0,0.0,0.0,0.0,0.0,0.0,0.0,0.0,0.0,0.0,0.0,2.7039,3.1333,3.746,3.9043,3.9481,3.9046,3.6265,3.2165,2.6599,2.3568,0.0,0.0,0.0,0.0,0.0,0.0,0.0,0.0,0.0,0.0,0.0,0.0,0.0,0.0,0.0,0.0,0.0,0.0,0.0,0.0,0.0,0.0,0.0,0.0,0.0,0.0,0.0,0.0,0.0,0.0,0.0,0.0,0.0,0.0,0.0,0.0,0.0,0.0,0.0,0.0,0.0,0.0,0.0,0.0,0.0,0.0,0.0,0.0,0.0,0.0,0.0,0.0,0.0,0.0,0.0,0.0,0.0,0.0,0.0,0.0,0.0,0.0,0.0,0.0,0.0,0.0,0.0,0.0,0.0,0.0,0.0,0.0,0.0,0.0,0.0,0.0,0.0,0.0,0.0,0.0,0.0,0.0,0.0,0.0,0.0,0.0,0.0,0.0,0.0,0.0,0.0,0.0,0.0,0.0,0.0,0.0,0.0,0.0,0.0,0.0,0.0,0.0,3.2126,3.5587,3.9472,4.0433,4.0548,3.9942,3.7175,3.2898,2.6898,2.3963,0.0,0.0,0.0,0.0,0.0,0.0,0.0,0.0,0.0,0.0,0.0,0.0,0.0,0.0,0.0,0.0,0.0,0.0,0.0,0.0,0.0,0.0,0.0,0.0,0.0,0.0,0.0,0.0,0.0,0.0,0.0,0.0,0.0,0.0,0.0,0.0,0.0,0.0,0.0,0.0,0.0,0.0,0.0,0.0,0.0,0.0,0.0,0.0,0.0,0.0,0.0,0.0,0.0,0.0,0.0,0.0,0.0,0.0,0.0,0.0,0.0,0.0,0.0,0.0,0.0,0.0,0.0,0.0,0.0,0.0,0.0,0.0,0.0,0.0,0.0,0.0,0.0,0.0,0.0,0.0,0.0,0.0,0.0,0.0,0.0,0.0,0.0,0.0,0.0,0.0,0.0,0.0,0.0,0.0,0.0,0.0,0.0,0.0,0.0,0.0,0.0,0.0,3.2606,3.7546,3.9667,4.0433,4.0781,4.0727,3.8166,3.3964,2.7788,2.4994,0.0,0.0,0.0,0.0,0.0,0.0,0.0,0.0,0.0,0.0,0.0,0.0,0.0,0.0,0.0,0.0,0.0,0.0,0.0,0.0,0.0,0.0,0.0,0.0,0.0,0.0,0.0,0.0,0.0,0.0,0.0,0.0,0.0,0.0,0.0,0.0,0.0,0.0,0.0,0.0,0.0,0.0,0.0,0.0,0.0,0.0,0.0,0.0,0.0,0.0,0.0,0.0,0.0,0.0,0.0,0.0,0.0,0.0,0.0,0.0,0.0,0.0,0.0,0.0,0.0,0.0,0.0,0.0,0.0,0.0,0.0,0.0,0.0,0.0,0.0,0.0,0.0,0.0,0.0,0.0,0.0,0.0,0.0,0.0,0.0,0.0,0.0,0.0,0.0,0.0,0.0,0.0,0.0,0.0,0.0,0.0,0.0,0.0,0.0,0.0,0.0,0.0,3.2062,3.6781,4.0332,4.0764,4.0801,4.0804,3.8277,3.4074,2.7897,0.0,0.0,0.0,0.0,0.0,0.0,0.0,0.0,0.0,0.0,0.0,0.0,0.0,0.0,0.0,0.0,0.0,0.0,0.0,0.0,0.0,0.0,0.0,0.0,0.0,0.0,0.0,0.0,0.0,0.0,0.0,0.0,0.0,0.0,0.0,0.0,0.0,0.0,0.0,0.0,0.0,0.0,0.0,0.0,0.0,0.0,0.0,0.0,0.0,0.0,0.0,0.0,0.0,0.0,0.0,0.0,0.0,0.0,0.0,0.0,0.0,0.0,0.0,0.0,0.0,0.0,0.0,0.0,0.0,0.0,0.0,0.0,0.0,0.0,0.0,0.0,0.0,0.0,0.0,0.0,0.0,0.0,0.0,0.0,0.0,0.0,0.0,0.0,0.0,0.0,0.0,0.0,0.0,0.0,0.0,0.0,0.0,0.0,0.0,0.0,0.0,0.0,2.7727,3.2842,3.7523,4.1191,4.1618,4.1519,4.1243,3.8945,3.4669,2.7935,0.0,0.0,0.0,0.0,0.0,0.0,0.0,0.0,0.0,0.0,0.0,0.0,0.0,0.0,0.0,0.0,0.0,0.0,0.0,0.0,0.0,0.0,0.0,0.0,0.0,0.0,0.0,0.0,0.0,0.0,0.0,0.0,0.0,0.0,0.0,0.0,0.0,0.0,0.0,0.0,0.0,0.0,0.0,0.0,0.0,0.0,0.0,0.0,0.0,0.0,0.0,0.0,0.0,0.0,0.0,0.0,0.0,0.0,0.0,0.0,0.0,0.0,0.0,0.0,0.0,0.0,0.0,0.0,0.0,0.0,0.0,0.0,0.0,0.0,0.0,0.0,0.0,0.0,0.0,0.0,0.0,0.0,0.0,0.0,0.0,0.0,0.0,0.0,0.0,0.0,0.0,0.0,0.0,0.0,0.0,0.0,0.0,0.0,0.0,0.0,0.0,0.0,2.8766,3.5214,4.0326,4.2207,4.3017,4.3052,4.2183,4.0385,3.5916,0.0,0.0,0.0,0.0,0.0,0.0,0.0,0.0,0.0,0.0,0.0,0.0,0.0,0.0,0.0,0.0,0.0,0.0,0.0,0.0,0.0,0.0,0.0,0.0,0.0,0.0,0.0,0.0,0.0,0.0,0.0,0.0,0.0,0.0,0.0,0.0,0.0,0.0,0.0,0.0,0.0,0.0,0.0,0.0,0.0,0.0,0.0,0.0,0.0,0.0,0.0,0.0,0.0,0.0,0.0,0.0,0.0,0.0,0.0,0.0,0.0,0.0,0.0,0.0,0.0,0.0,0.0,0.0,0.0,0.0,0.0,0.0,0.0,0.0,0.0,0.0,0.0,0.0,0.0,0.0,0.0,0.0,0.0,0.0,0.0,0.0,0.0,0.0,0.0,0.0,0.0,0.0,0.0,0.0,0.0,0.0,0.0,0.0,0.0,0.0,0.0,0.0,0.0,2.9685,3.6124,4.1242,4.3124,4.3373,4.3303,4.3044,4.0739,3.62,2.8883,0.0,0.0,0.0,0.0,0.0,0.0,0.0,0.0,0.0,0.0,0.0,0.0,0.0,0.0,0.0,0.0,0.0,0.0,0.0,0.0,0.0,0.0,0.0,0.0,0.0,0.0,0.0,0.0,0.0,0.0,0.0,0.0,0.0,0.0,0.0,0.0,0.0,0.0,0.0,0.0,0.0,0.0,0.0,0.0,0.0,0.0,0.0,0.0,0.0,0.0,0.0,0.0,0.0,0.0,0.0,0.0,0.0,0.0,0.0,0.0,0.0,0.0,0.0,0.0,0.0,0.0,0.0,0.0,0.0,0.0,0.0,0.0,0.0,0.0,0.0,0.0,0.0,0.0,0.0,0.0,0.0,0.0,0.0,0.0,0.0,0.0,0.0,0.0,0.0,0.0,0.0,0.0,0.0,0.0,0.0,0.0,0.0,0.0,0.0,0.0,0.0,0.0,3.018,3.6552,4.1618,4.3496,4.3863,4.3945,4.3929,4.1418,3.7245,3.1093,0.0,0.0,0.0,0.0,0.0,0.0,0.0,0.0,0.0,0.0,0.0,0.0,0.0,0.0,0.0,0.0,0.0,0.0,0.0,0.0,0.0,0.0,0.0,0.0,0.0,0.0,0.0,0.0,0.0,0.0,0.0,0.0,0.0,0.0,0.0,0.0,0.0,0.0,0.0,0.0,0.0,0.0,0.0,0.0,0.0,0.0,0.0,0.0,0.0,0.0,0.0,0.0,0.0,0.0,0.0,0.0,0.0,0.0,0.0,0.0,0.0,0.0,0.0,0.0,0.0,0.0,0.0,0.0,0.0,0.0,0.0,0.0,0.0,0.0,0.0,0.0,0.0,0.0,0.0,0.0,0.0,0.0,0.0,0.0,0.0,0.0,0.0,0.0,0.0,0.0,0.0,0.0,0.0,0.0,0.0,0.0,0.0,0.0,0.0,0.0,0.0,0.0,3.0502,3.677,4.1816,4.3515,4.4355,4.4777,4.472,4.2335,3.8788,3.4033,0.0,0.0,0.0,0.0,0.0,0.0,0.0,0.0,0.0,0.0,0.0,0.0,0.0,0.0,0.0,0.0,0.0,0.0,0.0,0.0,0.0,0.0,0.0,0.0,0.0,0.0,0.0,0.0,0.0,0.0,0.0,0.0,0.0,0.0,0.0,0.0,0.0,0.0,0.0,0.0,0.0,0.0,0.0,0.0,0.0,0.0,0.0,0.0,0.0,0.0,0.0,0.0,0.0,0.0,0.0,0.0,0.0,0.0,0.0,0.0,2.1523,1.8788,0.0,0.0,0.0,0.0,0.0,0.0,0.0,0.0,0.0,0.0,0.0,0.0,0.0,0.0,0.0,0.0,0.0,0.0,0.0,0.0,0.0,0.0,0.0,0.0,0.0,0.0,0.0,0.0,0.0,0.0,0.0,0.0,0.0,0.0,0.0,0.0,0.0,0.0,0.0,0.0,3.1482,3.8248,4.3209,4.365,4.4355,4.4767,4.4705,4.2874,3.9689,3.4925,3.0978,0.0,0.0,0.0,0.0,0.0,0.0,0.0,0.0,0.0,0.0,0.0,0.0,0.0,0.0,0.0,0.0,0.0,0.0,0.0,0.0,0.0,0.0,0.0,0.0,0.0,0.0,0.0,0.0,0.0,0.0,0.0,0.0,0.0,0.0,0.0,0.0,0.0,0.0,0.0,0.0,0.0,0.0,0.0,0.0,0.0,0.0,0.0,0.0,0.0,0.0,0.0,0.0,0.0,0.0,0.0,0.0,0.0,0.0,0.0,2.4199,2.2065,0.0,0.0,0.0,0.0,0.0,0.0,0.0,0.0,0.0,0.0,0.0,0.0,0.0,0.0,0.0,0.0,0.0,0.0,0.0,0.0,0.0,0.0,0.0,0.0,0.0,0.0,0.0,0.0,0.0,0.0,0.0,0.0,0.0,0.0,0.0,0.0,0.0,0.0,0.0,0.0,3.1835,3.8022,4.254,4.3025,4.3418,4.3757,4.4055,4.2485,4.0267,3.739,3.2956,0.0,0.0,0.0,0.0,0.0,0.0,0.0,0.0,0.0,0.0,0.0,0.0,0.0,0.0,0.0,0.0,0.0,0.0,0.0,0.0,0.0,0.0,0.0,0.0,0.0,0.0,0.0,0.0,0.0,0.0,0.0,0.0,0.0,0.0,0.0,0.0,0.0,0.0,0.0,0.0,0.0,0.0,0.0,0.0,0.0,0.0,0.0,0.0,0.0,0.0,0.0,0.0,0.0,2.8008,2.9023,2.9863,2.9863,3.1211,3.3262,2.8105,2.6901,2.8209,2.325,0.0,0.0,0.0,0.0,0.0,0.0,0.0,0.0,0.0,0.0,0.0,0.0,0.0,0.0,0.0,0.0,0.0,0.0,0.0,0.0,0.0,0.0,0.0,0.0,3.0566,3.1445,0.0,0.0,0.0,0.0,0.0,0.0,0.0,0.0,0.0,0.0,0.0,0.0,3.2708,3.7782,4.149,4.2126,4.2324,4.2605,4.3128,4.1899,4.071,3.9766,3.5077,3.1467,0.0,0.0,0.0,0.0,0.0,0.0,0.0,0.0,0.0,0.0,0.0,0.0,0.0,0.0,0.0,0.0,0.0,0.0,0.0,0.0,0.0,0.0,0.0,0.0,0.0,0.0,0.0,0.0,0.0,0.0,0.0,0.0,2.2519,2.2519,0.0,0.0,0.0,0.0,0.0,0.0,0.0,0.0,0.0,0.0,0.0,0.0,0.0,2.5383,2.6484,2.9609,3.123,3.1367,3.3691,3.5273,3.6113,3.6113,3.7129,3.8809,3.7246,0.0,3.0463,2.9552,0.0,0.0,0.0,0.0,0.0,0.0,0.0,0.0,0.0,0.0,0.0,0.0,0.0,0.0,0.0,0.0,0.0,0.0,0.0,0.0,0.0,0.0,3.5801,3.5918,3.6777,3.7461,0.0,3.1582,2.6719,2.6309,2.6308,0.0,0.0,0.0,0.0,0.0,0.0,0.0,3.5942,3.9783,4.2005,4.1426,4.1973,4.2371,4.2284,4.206,4.1299,3.9785,3.8285,3.5537,3.1268,2.9237,0.0,0.0,0.0,0.0,0.0,0.0,0.0,0.0,0.0,0.0,0.0,0.0,0.0,0.0,0.0,0.0,0.0,0.0,0.0,0.0,0.0,0.0,0.0,0.0,0.0,0.0,0.0,0.0,0.0,2.0836,2.209,2.3006,2.1289,1.9453,0.0,0.0,0.0,0.0,0.0,0.0,0.0,0.0,0.0,2.7969,2.8896,3.0224,3.2031,3.4531,3.6035,3.6543,3.8613,4.0059,4.0898,4.0898,4.1308,4.2012,4.1621,3.9902,3.7089,3.3568,3.023,2.718,0.0,0.0,0.0,0.0,2.5625,2.6396,2.9055,2.9612,2.9063,2.8548,0.0,0.0,0.0,0.0,0.0,0.0,0.0,0.0,0.0,0.0,3.7051,3.9023,3.9785,4.0059,4.0059,3.6992,3.3652,0.0,3.0527,2.8613,2.4638,0.0,0.0,0.0,0.0,3.4905,3.6856,3.98,4.1582,4.123,4.1523,4.1629,4.1381,4.1383,4.0967,4.0,3.8956,3.7404,3.5143,3.2023,2.8576,0.0,0.0,0.0,0.0,0.0,0.0,0.0,0.0,0.0,0.0,0.0,0.0,0.0,0.0,0.0,0.0,0.0,0.0,0.0,0.0,0.0,0.0,0.0,0.0,0.0,0.0,0.0,0.0,2.226,2.2956,2.403,2.3216,2.1543,0.0,0.0,0.0,0.0,0.0,0.0,2.5996,2.707,2.9277,3.2754,3.3711,3.5293,3.7617,3.9141,4.0234,4.0898,4.2148,4.3183,4.4023,4.4023,4.4141,4.4375,4.4375,4.4004,4.2988,3.7702,3.4602,3.2922,3.0302,2.8695,2.8039,2.9791,3.0603,3.1293,3.4294,3.4853,3.4087,3.3254,3.1749,2.9858,2.7787,0.0,0.0,0.0,0.0,3.2695,3.6113,3.7656,3.9004,4.1836,4.25,4.25,4.25,4.1641,3.9902,0.0,3.4844,3.2519,2.8379,0.0,0.0,0.0,3.3342,3.6947,3.8891,4.0525,4.1504,4.1504,4.1328,4.1082,4.0816,4.081,4.06,4.0139,3.9229,3.8559,3.8212,3.4829,3.199,2.9947,0.0,0.0,0.0,0.0,0.0,0.0,0.0,0.0,0.0,0.0,0.0,0.0,0.0,0.0,0.0,0.0,0.0,0.0,0.0,0.0,0.0,0.0,0.0,0.0,0.0,0.0,0.0,0.0,0.0,2.6813,2.742,0.0,0.0,0.0,0.0,2.4082,2.5801,2.791,3.0449,3.2129,3.4609,3.8105,3.9062,4.0332,4.2051,4.2988,4.3476,4.3516,4.3594,4.4082,4.4922,4.4922,4.5391,4.6172,4.6172,4.6133,4.5879,4.3027,3.9896,3.6899,3.6661,3.5585,3.4342,3.6095,3.7308,3.832,4.0039,4.059,4.0389,3.9455,3.64,3.2922,3.1973,3.1222,0.0,0.0,3.6152,3.8926,4.2363,4.3887,4.4805,4.5801,4.6035,4.6035,4.6035,4.4707,4.2734,0.0,3.8906,3.7168,3.3613,0.0,3.4902,3.6367,3.6894,3.8908,4.3789,4.3201,4.2344,4.2344,4.166,4.1082,4.0816,4.081,4.06,4.0139,3.9738,3.9382,3.9051,3.7858,3.5679,3.2485,3.0002,0.0,0.0,0.0,0.0,0.0,0.0,0.0,0.0,0.0,0.0,0.0,0.0,0.0,0.0,0.0,0.0,0.0,0.0,0.0,0.0,0.0,0.0,0.0,0.0,0.0,0.0,0.0,0.0,2.9457,3.0263,0.0,2.7949,2.8496,2.9101,2.9394,3.1504,3.3691,3.5742,3.6953,3.8652,4.0976,4.1894,4.2637,4.3223,4.4101,4.4531,4.4531,4.5117,4.5547,4.584,4.584,4.6016,4.6308,4.6308,4.6308,4.623,4.5273,4.3464,4.124,4.0585,3.9663,3.8791,3.9422,4.0234,4.1133,4.1699,4.1863,4.1685,4.0738,3.9445,3.8078,3.7224,3.7975,3.9219,3.9551,4.1543,4.3965,4.5742,4.6445,4.6894,4.7773,4.7969,4.7969,4.7969,4.7031,4.5937,4.5039,4.3242,4.1133,3.8828,4.0488,4.1582,3.998,4.1146,4.2877,4.4702,4.395,4.3027,4.2461,4.2148,4.1912,4.178,4.169,4.1764,4.2078,4.1207,4.0574,4.0271,3.9144,3.7886,3.656,3.5679,3.2118,0.0,0.0,0.0,0.0,0.0,0.0,0.0,0.0,0.0,0.0,0.0,0.0,0.0,0.0,0.0,0.0,0.0,0.0,0.0,0.0,0.0,0.0,0.0,0.0,0.0,0.0,3.0684,3.1269,3.2871,3.3125,3.1074,3.2461,3.373,3.4316,3.6191,3.8066,3.9785,4.0703,4.1836,4.3223,4.3848,4.4277,4.457,4.5156,4.5449,4.5449,4.6016,4.6308,4.6308,4.6601,4.6738,4.6758,4.7051,4.7187,4.7187,4.7187,4.6465,4.5253,4.4009,4.3227,4.2781,4.2781,4.3178,4.3769,4.4043,4.41,4.3929,4.3358,4.2961,4.2626,4.2101,4.3163,4.4512,4.4238,4.5391,4.7012,4.8164,4.8476,4.8691,4.9531,4.9746,4.9746,4.9746,4.9297,4.8887,4.8887,4.6543,4.4219,4.3105,4.4805,4.5332,4.2461,4.3984,4.5234,4.4648,4.4316,4.3926,4.334,4.3008,4.2791,4.2675,4.18,4.1807,4.3099,4.1455,4.0745,4.1449,3.9464,3.8236,3.8061,3.74,3.4137,2.8209,0.0,0.0,0.0,0.0,0.0,0.0,0.0,0.0,0.0,0.0,0.0,0.0,0.0,0.0,0.0,0.0,0.0,0.0,0.0,0.0,0.0,0.0,0.0,2.8515,3.0684,3.2383,3.2422,3.5351,3.6406,3.3926,3.5215,3.6914,3.8633,3.9531,4.0742,4.2383,4.3281,4.4141,4.5019,4.5039,4.5449,4.6289,4.6308,4.6308,4.6348,4.6308,4.6328,4.6406,4.7226,4.7617,4.7695,4.8535,4.8906,4.8906,4.8906,4.8906,4.873,4.7031,4.6386,4.6366,4.6366,4.6367,4.6484,4.7344,4.7531,4.7463,4.7591,4.6972,4.6191,4.6308,4.6387,4.6582,4.7402,4.7676,4.8105,4.9805,5.0234,5.043,5.1211,5.1406,5.1406,5.1406,5.1406,5.1406,5.1406,4.873,4.6465,4.6465,4.6445,4.5859,4.416,4.5293,0.0,4.4043,4.4531,4.5,4.4883,4.4121,4.354,4.3342,4.1057,4.0645,4.3041,4.0537,4.0081,4.2524,3.8991,3.6969,3.6945,3.4929,3.3091,3.1458,0.0,0.0,0.0,0.0,0.0,0.0,0.0,0.0,0.0,0.0,0.0,0.0,0.0,0.0,0.0,0.0,0.0,0.0,0.0,0.0,0.0,0.0,3.1297,3.1152,3.3887,3.6367,3.7637,3.8613,3.9375,3.9883,4.0351,4.1094,4.2207,4.2519,4.3125,4.4238,4.4512,4.5039,4.5918,4.5937,4.6055,4.6308,4.6308,4.6621,4.7226,4.6601,4.6953,4.8164,4.7773,4.7949,4.8555,4.8808,4.8906,4.8906,4.8906,4.8906,4.8846,4.8379,4.8125,4.8048,4.8048,4.7967,4.7937,4.8171,4.8224,4.8205,4.825,4.8129,4.7871,4.7285,4.8047,4.9043,4.8652,4.9414,5.0469,5.0957,5.1074,5.1133,5.1348,5.1406,5.1406,5.1406,5.1406,5.1406,5.1406,5.0644,5.0,5.0,4.9512,4.8965,4.8496,4.7754,4.707,4.6582,4.6191,4.498,4.2519,4.2031,4.1831,4.1663,4.0926,4.1778,4.4872,4.363,4.3004,4.3517,4.1684,4.0397,3.9921,3.7077,3.4798,0.0,0.0,0.0,0.0,0.0,0.0,0.0,0.0,0.0,0.0,0.0,0.0,0.0,0.0,0.0,0.0,0.0,0.0,0.0,0.0,0.0,0.0,3.2011,3.4504,3.531,3.7148,3.8906,4.0273,4.0742,4.1328,4.2305,4.2734,4.3301,4.418,4.4238,4.4629,4.5508,4.5547,4.5781,4.6289,4.6308,4.6308,4.6308,4.6308,4.6738,4.7598,4.709,4.7578,4.8906,4.875,4.8965,4.9453,4.9805,4.9941,4.9941,4.9941,4.9941,0.0,0.0,0.0,0.0,0.0,4.8846,4.9044,4.9044,4.9276,4.9596,4.9622,4.9688,4.9659,4.9213,4.9844,5.0605,5.0098,5.0644,5.1406,5.1406,5.1406,5.1406,5.1406,5.1406,5.1406,5.1406,5.1406,5.1406,5.1406,5.1133,0.0,5.0898,5.0508,4.9707,4.8242,4.7773,4.7207,4.6113,4.6152,4.5547,4.3555,4.334,4.3285,4.3159,4.2042,0.0,0.0,0.0,4.2926,4.2172,4.148,0.0,0.0,0.0,0.0,0.0,0.0,0.0,0.0,3.1286,3.0228,0.0,0.0,0.0,0.0,0.0,0.0,0.0,0.0,0.0,0.0,0.0,0.0,0.0,0.0,0.0,0.0,3.5329,3.8073,3.9664,4.0059,4.0469,4.123,4.1973,4.248,4.2676,4.3398,4.4219,4.5078,4.5156,4.5488,4.6269,0.0,0.0,0.0,0.0,4.6308,4.6308,4.6308,4.6797,4.7754,4.7656,4.8164,4.9219,4.9883,5.0254,5.0371,5.1094,5.1406,5.1406,5.1406,5.1406,5.125,4.9746,4.9152,4.9138,4.9009,4.9356,4.9913,4.9913,0.0,0.0,5.1144,5.1183,5.1233,5.1341,5.1384,5.1406,5.1406,5.1328,5.1269,5.1269,5.1191,5.1113,5.1113,5.1113,5.1113,5.1113,5.1113,5.1113,5.1113,5.0547,5.0019,4.9922,4.9902,4.8867,4.5762,4.6523,4.6621,4.4297,4.5332,4.6191,4.5898,0.0,0.0,4.5679,4.3489,4.3171,4.5624,4.3643,4.1798,4.0498,4.0488,4.0528,4.0491,3.981,4.114,4.4614,4.4315,4.4337,4.443,3.4946,3.2745,0.0,0.0,0.0,0.0,0.0,0.0,0.0,0.0,0.0,0.0,0.0,0.0,0.0,0.0,0.0,3.4802,3.7571,3.9489,3.984,4.1055,4.1973,4.2148,4.2305,4.2949,4.4355,4.4648,4.5117,4.5976,4.6055,4.6113,4.6289,4.6308,4.6308,4.6308,4.6308,4.6308,4.6308,4.6308,4.709,4.8633,0.0,0.0,5.0898,5.043,5.0547,5.1172,5.1328,5.1406,5.1406,5.1406,5.1406,5.1367,5.0918,5.0757,5.0728,5.0538,5.0548,5.0683,5.0683,5.0818,5.0952,5.1075,5.1169,5.1202,5.1225,5.1304,0.0,5.1406,5.0937,5.043,5.043,4.9902,4.9375,4.9375,4.9375,4.9375,4.9375,4.9375,4.9375,4.9375,4.9258,4.8926,4.8223,4.8105,4.7871,4.7207,4.6797,4.6367,4.5859,4.6094,4.5488,4.3379,4.3144,4.3123,4.304,4.2555,4.3267,4.5643,4.5874,4.5649,4.5055,4.5401,4.5171,4.4271,4.4104,4.4104,4.4234,4.4467,4.4732,4.4957,4.2904,4.2546,0.0,0.0,0.0,0.0,0.0,0.0,0.0,0.0,0.0,0.0,0.0,2.7793,0.0,0.0,3.4941,3.7539,3.9052,4.0043,4.0487,4.1621,4.2402,4.2402,4.3164,4.4043,4.4922,4.5391,4.5807,4.6169,4.6264,4.6269,4.6191,4.6269,4.6308,4.6308,4.6308,4.6308,4.6308,4.6308,4.7168,4.8887,4.8457,4.9355,5.1387,5.0976,5.1016,5.1406,5.1406,5.1406,5.1406,5.1406,5.1406,5.1387,5.1328,5.1269,5.119,5.1082,5.1029,5.101,5.101,5.1029,5.1068,5.1138,5.1224,5.1288,5.1288,5.1079,5.0801,5.0801,5.0195,4.9551,4.9551,4.9238,4.8906,4.8906,4.8906,4.8906,4.8906,4.8906,4.8906,4.8906,4.8555,4.8105,4.7676,4.7246,4.6953,4.6953,4.6582,4.6308,4.6308,4.6308,4.5801,4.4492,4.4355,4.4336,4.4297,4.425,4.4661,4.5717,4.6509,4.6743,4.632,4.6939,4.7148,4.6805,4.6805,4.6805,4.6794,4.7212,4.7481,4.7598,4.7809,4.753,0.0,0.0,0.0,0.0,0.0,0.0,0.0,0.0,2.524,2.7915,2.9862,3.1777,3.4004,3.5703,3.75,3.9785,4.0156,4.0449,4.1308,4.2148,4.2715,4.2891,4.4141,4.5078,4.5234,4.5898,4.6253,4.6164,4.624,4.6245,4.6108,4.6206,4.6256,4.6269,4.6269,4.6269,4.6308,4.6308,4.709,4.8652,4.8828,4.9707,5.1172,5.1328,5.1406,5.1406,5.1406,5.1406,5.1406,5.1406,5.1406,5.1406,5.1406,5.1328,5.123,5.1211,5.118,5.1122,5.1106,5.1145,5.1202,5.1225,5.1315,5.1406,5.1406,5.084,5.0195,5.0195,4.9453,4.8652,4.8652,4.8516,4.8398,4.8398,4.8398,4.8398,4.8398,4.8398,4.8398,4.8398,4.7832,4.7344,4.7344,4.6777,4.6308,4.6308,4.6308,4.6308,4.6308,4.6308,4.6308,4.6308,4.6308,4.6308,4.6308,4.6172,4.6097,4.6112,4.686,4.7185,4.6942,4.7707,4.8295,4.8643,4.8643,4.8983,4.9636,5.0019,5.0225,5.0225,5.0757,5.0144,2.2116,2.2531,2.376,2.4553,2.4803,2.6063,0.0,0.0,3.0576,3.3122,3.5137,3.6758,3.7812,3.8809,3.9805,4.0879,4.1055,4.1348,4.2148,4.3008,4.3848,4.4629,4.4883,4.5293,4.6074,4.623,4.6289,4.6282,4.6298,4.6233,4.6117,4.6117,4.6122,4.6113,4.6113,4.6172,4.6308,4.6308,4.6797,4.7754,4.8535,4.9394,5.0351,5.1074,5.1406,5.1406,5.1406,5.1406,5.1406,5.1406,5.1406,5.1406,5.1406,5.1387,5.1367,5.123,5.1209,5.118,5.1192,5.1183,5.1215,5.1336,5.1384,5.1406,5.1406,5.084,5.0195,5.0195,4.9004,4.7754,4.7754,4.7168,4.6582,4.6582,4.6582,4.6582,4.6582,4.6582,4.6582,4.6582,4.6504,4.6445,4.6445,4.6367,4.6308,4.6308,4.6308,4.6308,4.6308,4.6308,4.6308,4.6308,4.6308,4.6308,4.6308,4.6172,4.6425,4.718,4.7924,4.8603,4.9202,4.9721,4.9982,4.9891,4.9891,4.9948,5.0043,5.0421,5.0624,5.0643,5.153,5.1472,2.714,0.0,0.0,0.0,2.9006,3.0294,3.2519,3.3344,3.4263,3.6336,3.7868,3.8926,3.9297,4.0078,4.0781,0.0,4.1191,4.1328,4.1641,4.2851,4.3848,4.4199,4.5137,4.5898,4.6269,4.6222,4.6152,4.6069,4.6076,4.6022,4.5935,4.5957,4.5978,4.5988,4.6066,4.6133,4.6172,4.6269,4.6738,4.7617,4.8476,4.9355,5.0234,5.1035,5.1406,5.1406,5.1406,5.1406,5.1406,5.1406,5.1406,5.1406,5.1406,5.1406,5.1387,5.1348,5.1328,5.1327,5.133,5.1312,5.1335,5.1381,5.1074,5.0781,5.1269,5.0137,4.8789,4.9297,4.8183,4.6836,4.6836,4.6562,4.6308,4.6308,4.6308,4.6308,4.6308,4.6308,4.6308,4.6308,4.6308,4.6308,4.6308,4.6308,4.6465,4.6973,4.6621,4.6484,4.6992,4.6601,4.6308,4.6308,4.6308,4.6308,4.6308,4.6719,4.7109,4.7383,4.8645,4.9478,4.9711,5.0308,5.0624,5.0558,5.096,5.1152,5.1152,5.1814,5.2183,5.228,5.2666,5.2743,3.0168,0.0,0.0,3.1046,3.2526,3.4045,3.4404,3.5721,3.7207,3.8488,3.9563,4.0254,4.0254,4.0762,4.1191,4.1191,4.1191,4.1289,4.1504,4.2578,4.3437,4.3672,4.5039,4.5937,4.5937,4.6076,4.6111,4.6022,4.5983,4.591,4.5835,4.5873,4.5873,4.5911,4.5998,4.6088,4.6152,4.625,4.6621,4.7246,4.8379,4.9238,4.9883,5.0918,5.1406,5.1406,5.1406,5.1406,5.1387,5.1152,5.1191,5.1387,5.1152,5.1191,5.1406,5.1406,5.1406,5.1406,5.1406,5.1406,5.1367,5.1133,5.0664,5.0254,5.0605,4.9258,4.7734,4.8359,4.7461,4.6308,4.6308,4.6308,4.6308,4.6308,4.6308,4.6308,4.6308,4.6308,4.6308,4.6308,4.6308,4.6308,4.6308,4.6308,4.668,4.7793,4.7226,4.6894,4.7519,4.6836,4.6308,4.6308,4.6308,4.6406,4.6641,4.7246,4.7754,4.8144,4.9355,5.009,5.0173,5.0689,5.0948,5.0895,5.1587,5.1952,5.1914,5.2799,5.3319,5.3416,5.3725,5.3976,0.0,0.0,3.2814,3.2814,3.4718,3.6834,3.781,3.8801,3.9523,3.9637,4.0467,4.1152,4.1152,4.1172,4.1191,4.1191,4.1191,4.1465,4.2246,4.2402,4.2754,4.3594,4.4492,4.5039,0.0,4.5801,4.6289,4.6285,4.6177,4.6044,4.5909,4.5834,4.5834,4.5911,4.589,4.603,4.6289,4.6308,4.6308,4.6367,4.8086,4.8906,4.9004,5.0644,5.1406,5.1406,5.1406,5.1406,5.1348,5.0566,5.0703,5.1328,5.0547,5.0703,5.1406,5.1406,5.1406,5.1406,5.1406,5.1406,5.1269,5.0488,5.0215,5.0058,4.9219,4.832,4.7617,4.7637,4.6992,4.6308,4.6308,4.6308,4.6308,4.6308,4.6308,4.6308,4.6308,4.6308,4.6308,4.6308,4.6308,4.6308,4.6308,4.6308,4.6875,4.8594,4.8125,4.7578,4.7598,4.6836,4.6308,4.6308,4.6308,4.6641,4.748,4.7578,4.832,5.0019,5.0156,5.0488,5.1133,5.1171,5.1103,5.0914,5.1683,5.2029,5.1914,5.2915,5.3397,5.3435,5.4535,5.5036,3.1245,0.0,3.4026,3.5141,3.6969,3.858,3.8922,3.9788,4.0539,4.0554,4.0889,4.1016,4.0449,4.0801,4.1016,4.043,4.082,4.1289,4.1562,4.2051,4.2715,4.3594,4.4473,0.0,0.0,0.0,0.0,4.603,4.5881,4.5757,4.5699,4.568,4.568,4.5699,4.58,4.5906,4.6033,4.6124,4.6211,4.6328,4.8066,4.9473,5.0586,5.1133,5.1406,5.1406,5.1406,5.1094,5.0625,5.0898,5.0508,4.9824,5.0664,5.084,5.0664,5.1191,5.1055,5.0683,5.1211,5.1055,5.0566,5.0293,4.9414,4.8535,4.8808,4.7891,4.6855,4.7441,4.6973,4.6308,4.6308,4.6308,4.6308,4.6308,4.6308,4.6308,4.6308,4.6308,4.6308,4.6308,4.6308,4.6308,4.6308,4.6777,4.7558,4.8711,4.8652,4.8242,4.7676,4.7344,4.7168,4.7168,4.7676,4.8144,4.8437,4.8984,4.957,5.0156,5.0703,5.1094,5.1328,5.125,5.1437,5.1947,5.2709,5.3301,5.3762,5.4762,5.5248,5.5273,5.5749,5.6019,3.3412,3.4279,3.5245,3.7233,3.8614,3.9557,3.9903,4.0504,4.1017,4.105,4.0647,4.0195,3.9941,4.0098,4.0195,3.9941,4.0879,4.1523,4.123,4.1869,4.2577,4.313,4.3938,4.4761,0.0,0.0,0.0,4.5968,4.5789,4.568,4.568,4.5624,4.5605,4.568,4.5746,4.5854,4.5968,4.6058,4.6484,4.7246,4.8359,4.9785,5.1406,5.1406,5.1406,5.1387,5.1094,5.0683,5.0195,5.0098,4.959,4.9004,5.0098,5.0371,5.0293,5.1094,5.1074,5.0664,5.0898,5.043,4.9687,4.9375,4.8516,4.7656,4.7891,4.7187,4.6426,4.6973,4.6738,4.6308,4.6308,4.6308,4.6308,4.6308,4.6308,4.6308,4.6308,4.6308,4.6308,4.6308,4.6308,4.6308,4.6308,4.7285,4.8359,4.9238,4.9355,4.8945,4.7754,4.7598,4.7598,4.7598,4.8379,4.9023,4.9336,4.9883,5.0312,5.0605,5.1113,5.1406,5.1406,5.1328,5.166,5.248,5.3268,5.4037,5.4774,5.5788,5.6271,5.6267,5.6412,5.6531,3.5499,3.5835,3.6517,3.894,3.9605,3.9899,4.0808,4.0958,4.0982,4.1103,3.9785,3.8828,0.0,0.0,3.8887,3.959,4.1132,4.1971,4.117,4.1693,4.219,0.0,0.0,0.0,0.0,0.0,0.0,4.6065,0.0,4.5796,4.5796,4.568,4.5643,4.5796,4.5796,4.5853,4.6007,4.6033,4.6973,4.8828,4.8887,4.9766,5.1348,5.1387,5.1406,5.1367,5.0547,5.0176,5.0019,4.8359,4.8125,4.8848,4.8926,4.9473,5.0293,5.1094,5.1348,5.1152,5.0391,4.959,4.8769,4.7871,4.7598,4.7441,4.6562,4.6328,4.6367,4.6308,4.6308,4.6308,4.6308,4.6308,4.6308,4.6308,4.6308,4.6308,4.6308,4.6308,4.6308,4.6308,4.6348,4.6387,4.6426,4.7832,4.9258,5.0137,5.0234,4.9609,4.7949,4.7734,4.7734,4.7734,4.8516,4.9355,5.0195,5.0254,5.0586,5.1348,5.1406,5.1406,5.1406,5.1406,5.1777,5.2558,5.3398,5.42,5.4967,5.5949,5.6422,5.64,5.6537,5.6601,3.4661,3.6253,3.7816,3.8469,3.9661,4.0712,4.0947,4.0568,4.0187,4.0214,3.9355,3.8262,0.0,0.0,0.0,3.7266,3.8895,0.0,3.9228,3.9801,0.0,4.2008,0.0,4.3983,4.5441,4.5728,0.0,0.0,4.5738,4.5643,4.5643,4.5605,4.5605,4.5643,4.5643,4.5411,4.491,4.5103,4.6113,4.7949,4.8594,4.9453,5.0527,5.1133,5.1406,5.1367,5.0547,4.9824,4.9199,4.875,4.832,4.8066,4.9355,5.0,5.0293,5.1094,5.0605,4.9512,4.9297,4.9082,4.8769,4.7871,4.7598,4.7441,4.6562,4.6758,4.7129,4.6484,4.6308,4.6308,4.6308,4.6308,4.6308,4.6308,4.6308,4.6308,4.6308,4.6308,4.6308,4.6308,4.6816,4.7461,4.8125,4.9141,5.0156,5.0976,5.0586,5.0039,4.959,4.9531,4.9531,4.9531,5.0273,5.0859,5.1074,5.1094,5.1172,5.1387,5.1406,5.1406,5.1406,5.1406,5.2109,5.3594,5.3848,5.4628,5.6024,5.6387,5.6492,5.64,5.6537,5.6601,3.5547,3.6806,3.8026,3.8741,3.9394,3.9855,3.9822,3.9234,3.8496,3.7734,3.6894,3.5918,3.457,3.6445,0.0,0.0,0.0,0.0,3.8535,3.9359,4.0571,0.0,4.2763,0.0,4.5622,4.5738,4.5719,0.0,4.5624,4.5586,4.5586,4.524,4.5201,4.5586,4.4893,4.4526,4.4581,4.4811,4.5801,4.7617,4.8105,4.8984,5.0215,5.0664,5.1074,5.1367,0.0,4.9707,4.8906,4.8906,4.8398,4.7773,4.9512,5.0195,5.0293,5.1094,5.0801,4.9883,4.916,4.8906,4.8691,4.7441,4.7285,4.7519,4.7012,4.7207,4.75,4.7012,4.6601,4.6308,4.6308,4.6308,4.6308,4.6308,4.6308,4.6308,4.6308,4.6308,4.6308,4.6308,4.6992,4.7871,4.875,4.9629,5.0469,5.1289,5.1016,5.0723,5.0723,5.043,5.0195,5.0195,5.0918,5.1406,5.1406,5.1406,5.1406,5.1406,5.1406,5.1562,5.1953,5.1973,5.2793,5.4531,5.457,5.5195,5.6484,5.6562,5.6552,5.6496,5.6556,5.6601,3.6873,3.7166,3.7591,3.898,3.8854,3.837,3.8299,3.755,3.6421,3.4902,3.3789,3.2891,3.2305,3.4199,3.5597,3.4892,0.0,3.9913,3.8348,3.9394,4.0708,4.1681,4.2566,4.3758,4.5432,4.5586,4.5586,4.5586,4.549,4.5432,4.5432,4.4836,4.4778,4.543,4.3835,4.3525,4.4694,4.4715,4.5641,4.7422,4.7539,4.8457,5.0039,5.0156,5.0644,5.1367,5.0547,4.9766,4.9062,4.8945,4.8516,4.8105,4.9609,5.0273,5.0449,5.1133,5.1328,5.1016,4.9433,4.8906,4.8633,4.6992,4.7051,4.7773,4.7773,4.7851,4.793,4.7812,4.7226,4.6621,4.6504,4.6465,4.6445,4.6328,4.6308,4.6308,4.6308,4.6387,4.6465,4.6465,4.7266,4.8183,4.8945,4.9785,5.0605,5.1289,5.1406,5.1406,5.1406,5.0781,5.0351,5.0351,5.0976,5.1406,5.1406,5.1406,5.1406,5.1406,5.1406,5.1797,5.2656,5.2695,5.3516,5.5273,5.5293,5.5723,5.6601,5.6601,5.6601,5.6601,5.6601,5.6601,3.5911,3.6493,3.7124,3.7405,3.7901,3.8301,3.8292,3.6605,0.0,3.4663,3.2851,3.1504,3.209,3.3691,0.0,3.5597,0.0,0.0,0.0,0.0,3.9042,0.0,0.0,0.0,0.0,0.0,0.0,0.0,4.4932,4.4528,4.4528,4.5163,4.5276,4.4699,4.3047,4.3006,4.4675,4.4114,4.4731,4.6523,4.7266,4.8144,4.9141,4.9863,5.0644,5.1367,5.0547,0.0,4.9922,4.9199,4.9238,4.9785,5.0078,5.0605,5.1211,5.1348,5.0976,5.0254,4.9258,4.8906,4.873,4.7715,4.7969,4.8672,4.8672,4.918,4.9609,4.8887,4.8574,4.8281,4.7558,4.7363,4.7187,4.6465,4.6308,4.6308,4.6308,4.6875,4.7363,4.7363,4.8652,4.9805,4.9941,5.0644,5.123,5.1387,5.1406,5.1406,5.1406,5.1289,5.1191,5.1191,5.1328,5.1406,5.1406,5.1406,5.1406,5.1406,5.1406,5.1797,5.2656,5.2695,5.3516,5.5273,5.5293,5.5723,5.6601,5.6601,5.6601,5.6601,5.6601,5.6601,3.5687,3.6017,3.6424,3.6839,3.6928,3.6771,3.6265,0.0,0.0,3.148,3.0305,2.9486,2.9449,0.0,0.0,0.0,0.0,0.0,0.0,0.0,0.0,0.0,0.0,0.0,0.0,0.0,4.5586,4.5586,4.5201,4.4778,4.4316,4.4759,4.4275,4.2621,4.2566,4.3063,4.4113,4.3718,4.4433,4.6308,4.6719,4.7617,4.8906,4.9336,5.0215,5.1367,5.0547,4.9941,4.9531,4.9551,4.9551,4.9609,5.0488,5.1055,5.1406,5.1406,5.1152,5.0703,4.9863,4.957,4.9512,4.9082,4.9238,4.957,4.957,4.9863,5.0117,4.9687,4.9258,4.8808,4.8398,4.7949,4.748,4.707,4.6973,4.6973,4.6973,4.7656,4.8281,4.8281,4.9316,5.0195,5.0195,5.0879,5.1406,5.1406,5.1406,5.1406,5.1406,5.1406,5.1406,5.1406,5.1406,5.1406,5.1406,5.1406,5.1406,5.1406,5.1836,5.2461,5.334,5.3808,5.4668,5.5957,5.5976,5.6172,5.6601,5.6601,5.6601,5.6601,5.6601,5.6601,3.5661,3.5661,3.5815,3.6435,3.6089,3.5295,3.416,3.2679,3.0879,2.8559,2.7835,2.7596,2.7477,0.0,0.0,0.0,0.0,0.0,0.0,0.0,0.0,0.0,0.0,0.0,0.0,0.0,0.0,4.5586,4.5259,4.4853,4.4372,4.3814,4.2755,4.1101,4.2063,4.2811,4.3262,4.3403,4.4317,4.6016,4.6211,4.7129,4.8633,4.8808,4.9629,5.084,5.0391,4.9805,4.9238,4.9922,4.9902,4.957,5.0898,5.1406,5.1406,5.1406,5.1289,5.1055,5.043,5.0195,5.0195,5.0195,5.0195,5.0234,5.0391,5.0469,5.0469,5.0469,4.9961,4.9394,4.9219,4.8672,4.8105,4.793,4.7871,4.7871,4.7871,4.8555,4.918,4.918,4.9863,5.0469,5.0469,5.0976,5.1406,5.1406,5.1406,5.1406,5.1406,5.1406,5.1406,5.1406,5.1406,5.1406,5.1406,5.1406,5.1484,5.168,5.2324,5.3164,5.4238,5.4941,5.5703,5.6582,5.6601,5.6601,5.6601,5.6601,5.6601,5.6601,5.6601,5.6601,3.5526,3.5526,3.5545,3.5608,3.557,3.5084,3.3391,3.1775,3.0148,2.8453,2.6846,2.6462,2.8835,0.0,0.0,0.0,0.0,3.593,0.0,0.0,0.0,0.0,0.0,0.0,0.0,4.5586,4.5586,4.5586,4.4182,4.366,4.4441,4.2175,4.1158,4.1863,4.1311,4.1399,4.2225,4.3181,4.416,4.5137,4.5918,4.6797,4.7754,4.8535,4.8984,4.918,4.9883,5.0156,0.0,5.0176,5.0586,5.1191,5.1348,5.1406,5.1406,5.1406,5.0937,5.0293,5.0234,5.0195,5.0195,5.0195,5.0195,5.0332,5.1074,5.1289,5.1289,5.1289,5.123,5.0996,5.0273,5.0019,4.9766,4.8965,4.8789,4.8789,4.8789,4.9473,5.0078,5.0078,5.0742,5.1289,5.1289,5.1348,5.1406,5.1406,5.1406,5.1406,5.1406,5.1406,5.1406,5.1406,5.1406,5.1406,5.1406,5.1406,5.1738,5.2539,5.2656,5.3457,5.5117,5.5254,5.5703,5.6582,5.6601,5.6601,5.6601,5.6601,5.6601,5.6601,5.6601,5.6601,3.5493,3.5493,3.5493,3.5493,3.5493,3.493,3.2699,3.1275,2.9821,2.7704,2.6296,2.6093,2.8209,2.8972,0.0,0.0,0.0,0.0,0.0,0.0,0.0,0.0,0.0,0.0,0.0,0.0,4.5586,4.5586,4.4489,4.4006,4.4369,4.2409,4.1562,4.2152,4.1749,4.2022,4.3052,4.3447,4.4364,4.5781,4.6133,4.6758,4.7637,4.8496,4.9199,4.9707,5.0058,5.0195,0.0,5.0195,5.0391,5.0723,5.1211,5.1406,5.1406,5.1406,5.1191,5.0918,5.0918,5.0918,5.0918,5.0918,5.0918,5.0976,5.1308,5.1406,5.1406,5.1406,5.1406,5.1328,5.1016,5.0566,4.998,4.9101,4.9297,4.9687,4.9687,5.0332,5.0918,5.0918,5.1172,5.1406,5.1406,5.1406,5.1406,5.1406,5.1406,5.1406,5.1406,5.1406,5.1406,5.1406,5.1406,5.1406,5.1406,5.1406,5.1777,5.2637,5.3183,5.4023,5.5254,5.5801,5.625,5.6582,5.6601,5.6601,5.6601,5.6601,5.6601,5.6601,5.6601,5.6601,3.5307,3.532,3.5254,3.5254,3.5254,3.4527,3.1733,3.0669,2.9512,2.6792,2.5762,2.592,2.7678,2.8453,2.9713,3.2449,0.0,3.4584,0.0,0.0,0.0,0.0,0.0,4.247,0.0,4.5086,4.5586,4.5586,4.4566,4.4047,4.4297,4.272,4.2043,4.2518,4.2454,4.2801,4.3598,4.3892,4.4642,4.5918,4.6172,4.6758,4.7637,4.8496,4.9082,4.9453,4.998,4.9902,0.0,4.998,5.0195,5.0273,5.1094,5.1406,5.1406,5.1406,5.125,5.1074,5.1328,5.123,5.1074,5.1328,5.1406,5.1406,5.1406,5.1406,5.1406,5.1406,5.1406,5.1406,5.1406,5.0976,5.0391,4.9785,5.0117,5.0547,5.0547,5.0996,5.1406,5.1406,5.1406,5.1406,5.1406,5.1406,5.1406,5.1406,5.1406,5.1406,5.1406,5.1406,5.1406,5.1406,5.1406,5.1406,5.1406,5.1641,5.2168,5.3027,5.3906,5.4785,5.5644,5.6269,5.6601,5.6601,5.6601,5.6601,5.6601,5.6601,5.6601,5.6601,5.6601,5.6601,3.4876,3.4908,3.4694,3.4694,3.4694,3.3826,3.0487,2.9883,2.906,2.5781,2.5207,2.5841,2.7676,2.7956,2.9006,3.2352,3.3622,0.0,0.0,0.0,0.0,0.0,0.0,4.247,4.4143,4.5086,4.5586,4.5586,4.4047,4.3451,4.4259,4.272,4.22,4.3066,4.3283,4.3386,4.3405,4.4455,4.498,4.5019,4.5898,4.6758,4.7637,4.8496,4.8437,4.7715,4.9453,4.9219,0.0,4.9492,5.0195,5.0273,5.1094,5.1406,5.1406,5.1406,5.0898,5.0332,5.1113,5.0879,5.0332,5.1133,5.1406,5.1406,5.1406,5.1406,5.1406,5.1406,5.1406,5.1406,5.1406,5.1387,5.1387,5.1387,5.1387,5.1387,5.1387,5.1387,5.1406,5.1406,5.1406,5.1406,5.1406,5.1406,5.1406,5.1406,5.1406,5.1406,5.1406,5.1406,5.1406,5.1406,5.1406,5.1406,5.1406,5.2187,5.3066,5.3926,5.4805,5.5683,5.6543,5.6601,5.6601,5.6601,5.6601,5.6601,5.6601,5.6601,5.6601,5.6601,5.6601,5.6601,3.4129,3.4033,3.3676,3.3129,3.2997,3.2411,3.0204,2.9311,2.8354,2.6181,2.5387,2.5635,2.7395,2.7823,2.939,3.3949,3.4911,0.0,0.0,0.0,0.0,0.0,0.0,4.247,0.0,0.0,4.3893,4.3893,4.3393,4.3201,4.347,4.3508,4.3453,4.3321,4.3273,4.3656,4.4496,4.4744,4.5215,4.5898,4.6172,4.6445,4.6758,4.8223,4.875,4.8574,5.0273,5.0703,5.0234,5.0781,5.1016,5.1055,5.1308,5.1406,5.1406,5.1406,5.123,5.1055,5.1308,5.123,5.1055,5.1328,5.1406,5.1406,5.1406,5.1406,5.1406,5.1406,5.1406,5.1406,5.1406,5.1406,5.1406,5.1406,5.1406,5.1406,5.1406,5.1406,5.1406,5.1406,5.1406,5.1406,5.1406,5.1406,5.1406,5.1406,5.1406,5.1406,5.1406,5.1406,5.1406,5.1406,5.1406,5.1641,5.2246,5.2539,5.332,5.4805,5.5156,5.5683,5.6562,5.6601,5.6601,5.6601,5.6601,5.6601,5.6601,5.6601,5.6601,5.6601,5.6601,5.6601,3.2564,3.2751,3.2649,3.2042,3.1909,3.1403,2.9418,2.8652,2.7804,2.5853,2.5154,2.5348,2.673,2.716,2.8636,3.2793,3.3525,0.0,0.0,0.0,0.0,0.0,0.0,0.0,0.0,4.3855,4.3431,4.3124,4.2797,4.2604,4.2604,4.3393,4.3703,4.3417,4.3921,4.4591,4.5404,4.538,4.5683,4.6308,4.6308,4.6465,4.6836,4.791,4.8594,4.8984,5.0351,5.0762,0.0,5.1133,5.1211,5.0976,5.1289,5.1406,5.1406,5.1406,5.1406,5.1406,5.1406,5.1406,5.1406,5.1406,5.1406,5.1406,5.1406,5.1406,5.1406,5.1406,5.1406,5.1406,5.1406,5.1406,5.1406,5.1406,5.1406,5.1406,5.1406,5.1406,5.1406,5.1406,5.1406,5.1406,5.1406,5.1406,5.1406,5.1406,5.1406,5.1406,5.1406,5.1406,5.1406,5.1406,5.1699,5.2246,5.3125,5.3183,5.3789,5.5215,5.5605,5.6035,5.6582,5.6601,5.6601,5.6601,5.6601,5.6601,5.6601,5.6601,5.6601,5.6601,5.6601,5.6601,0.0,3.1032,3.1448,3.1151,3.1078,3.0467,2.8227,2.7814,0.0,2.5036,2.4676,2.5073,2.6012,2.6303,2.7294,3.0046,3.0593,3.2102,0.0,0.0,0.0,0.0,4.3124,0.0,4.4297,4.422,4.3797,4.297,4.2181,4.172,4.172,4.2585,4.3181,4.339,4.5029,4.5964,4.6108,4.6242,4.6285,4.6285,4.6308,4.6719,4.75,4.7578,4.8047,0.0,4.9726,4.9687,4.9101,5.0664,5.0918,5.0351,5.1113,5.1406,5.1406,5.1406,5.1406,5.1406,5.1406,5.1406,5.1406,5.1406,5.1406,5.1406,5.1406,5.1406,5.1406,5.1406,5.1406,5.1406,5.1406,5.1406,5.1406,5.1406,5.1406,5.1406,5.1406,5.1406,5.1406,5.1406,5.1406,5.1406,5.1406,5.1406,5.1406,5.1406,5.1406,5.1406,5.1406,5.1406,5.1406,5.1406,5.2129,5.2969,5.3828,5.4023,5.4453,5.5332,5.6152,5.6601,5.6601,5.6601,5.6601,5.6601,5.6601,5.6601,5.6601,5.6601,5.6601,5.6601,5.6601,5.6601,2.7104,0.0,2.8793,2.812,2.7846,2.7585,0.0,2.6434,2.5869,2.5298,2.4872,0.0,0.0,2.7623,2.8823,3.3478,3.3711,3.4334,3.7276,0.0,0.0,0.0,4.3297,4.2951,4.5086,4.3528,4.2027,4.1181,4.0912,4.0796,4.0796,4.2258,4.3181,4.339,4.5029,4.6013,4.6249,4.6192,4.6164,4.6145,4.6249,4.6348,4.6484,4.7246,4.7715,4.7949,4.8828,4.9473,4.9922,5.0312,5.0723,5.1133,5.1328,5.1406,5.1406,5.1406,5.1406,5.1406,5.1406,5.1406,5.1406,5.1406,5.1406,5.1406,5.1406,5.1406,5.1406,5.1406,5.1406,5.1406,5.1406,5.1406,5.1406,5.1406,5.1406,5.1406,5.1406,5.1406,5.1406,5.1406,5.1406,5.1406,5.1406,5.1406,5.1406,5.1406,5.1406,5.1406,5.1406,5.1406,5.1406,5.1406,5.1582,5.2051,5.293,5.4238,5.5371,5.623,5.6484,5.6601,5.6601,5.6601,5.6601,5.6601,5.6601,5.6601,5.6601,5.6601,5.6601,5.6601,5.6601,5.6601,2.5494,2.7023,2.8592,2.8165,2.7934,2.7738,2.7411,2.6392,2.541,2.4945,2.4598,0.0,0.0,0.0,2.8641,3.2306,3.3278,3.4891,0.0,0.0,0.0,0.0,4.4739,4.4374,4.4951,4.3412,4.2047,4.1162,4.1104,4.1104,4.1104,4.272,4.3775,4.4003,4.5223,4.6033,4.6308,4.6235,4.5988,4.5599,4.6063,4.605,4.5625,4.6562,4.7226,4.7637,4.8105,4.9023,5.0195,5.0195,5.0664,5.1406,5.1406,5.1406,5.1406,5.1406,5.1406,5.1406,5.1406,5.1406,5.1406,5.1406,5.1351,5.132,5.1381,5.1367,5.1328,5.1387,5.1406,5.1406,5.1406,5.1406,5.1406,5.1406,5.1406,5.1406,5.1406,5.1406,5.1406,5.1406,5.1406,5.1406,5.1406,5.1406,5.1406,5.1406,5.1406,5.1406,5.1406,5.1406,5.1406,5.1406,5.1758,5.2187,5.2656,5.3926,5.5078,5.5957,5.6387,5.6601,5.6601,5.6601,5.6601,5.6601,5.6601,5.6601,5.6601,5.6601,5.6601,5.6601,5.6601,5.6601,2.5073,2.7193,2.9241,2.8801,2.8817,2.8702,2.7867,0.0,0.0,2.4598,2.4484,0.0,0.0,2.7193,0.0,3.0646,3.2603,3.5334,3.9527,0.0,0.0,0.0,4.622,4.6028,4.4816,4.3739,4.2739,4.1873,4.1681,4.1662,4.1797,4.3278,4.4295,4.4694,4.5359,4.5838,4.6094,4.6094,4.5723,4.498,4.5609,4.5589,4.5004,4.576,4.6582,4.7402,0.0,0.0,5.0019,5.0156,5.0664,5.1387,5.1269,5.1289,5.1387,5.1269,5.1289,5.1406,5.1406,5.1406,5.1406,5.1406,5.1308,5.1257,5.138,5.1324,5.125,5.1367,5.1406,5.1406,5.1406,5.1406,5.1406,5.1406,5.1406,5.1406,5.1406,5.1406,5.1406,5.1406,5.1406,5.1406,5.1406,5.1406,5.1406,5.1406,5.1406,5.1406,5.1406,5.1406,5.1406,5.1406,5.2051,5.25,5.25,5.3301,5.4121,5.4863,5.5859,5.6465,5.6582,5.6601,5.6601,5.6601,5.6601,5.6601,5.6601,5.6601,5.6601,5.6601,5.6601,5.6601,2.6207,2.7801,2.8473,2.6099,2.6388,2.6935,2.5618,0.0,0.0,0.0,0.0,0.0,0.0,3.0622,3.1707,0.0,0.0,3.8334,0.0,0.0,4.347,4.6355,0.0,4.5163,4.6374,4.4451,4.2739,4.1873,4.1123,4.1027,4.1758,4.2739,4.3717,4.4675,4.4824,4.4994,4.5195,4.5195,4.5078,4.4824,4.4327,4.4357,4.4849,4.5089,4.5683,4.6543,0.0,4.8164,4.916,4.9902,5.0664,5.1328,5.0644,5.0801,5.1328,5.0644,5.082,5.1406,5.1406,5.1406,5.1406,5.1406,5.1382,5.1362,5.1391,5.1384,5.1367,5.1387,5.1406,5.1406,5.1406,5.1406,5.1406,5.1406,5.1406,5.1406,5.1406,5.1406,5.1406,5.1406,5.1406,5.1406,5.1406,5.1406,5.1406,5.1406,5.1406,5.1406,5.1406,5.1406,5.1406,5.1406,5.1523,5.1601,5.1601,5.2402,5.2969,5.3086,5.4609,5.582,5.6562,5.6601,5.6601,5.6601,5.6601,5.6601,5.6601,5.6601,5.6601,5.6601,5.6601,5.6601,2.5264,2.6862,2.7966,2.6337,2.7737,2.9377,0.0,0.0,0.0,0.0,0.0,0.0,0.0,0.0,0.0,0.0,0.0,3.9777,4.12,4.322,4.5143,0.0,4.6586,4.6317,4.6201,4.4701,4.3585,4.3181,4.2777,4.272,4.3124,4.397,4.4528,4.4699,4.5115,4.5013,4.4297,4.4297,4.4023,4.3496,4.3633,4.3888,4.423,4.475,4.5488,4.6348,0.0,4.8086,4.8965,4.9844,5.0664,5.1328,5.0508,5.0683,5.1367,5.0976,5.1074,5.1406,5.1406,5.1406,5.1406,5.1406,5.1348,5.1316,5.1386,5.1343,5.1317,5.1379,5.1406,5.1406,5.1406,5.1406,5.1406,5.1406,5.1406,5.1406,5.1406,5.1406,5.1406,5.1406,5.1406,5.1406,5.1406,5.1406,5.1406,5.1406,5.1406,5.1406,5.1406,5.1406,5.1406,5.1406,5.1406,5.1406,5.1406,5.1777,5.2402,5.334,5.4609,5.5488,5.5879,5.6348,5.6601,5.6601,5.6601,5.6601,5.6601,5.6601,5.6601,5.6601,5.6601,5.6601,2.4927,2.6289,2.7606,2.7752,2.9463,0.0,0.0,0.0,0.0,0.0,0.0,0.0,0.0,0.0,0.0,0.0,3.8892,4.0469,4.3047,4.4913,4.6163,4.6547,4.7144,4.7009,4.572,4.4797,4.4297,4.4297,4.4124,4.4105,4.4297,4.4932,4.5201,4.4991,4.5212,4.4779,4.3711,4.3301,4.2871,4.2402,4.2891,4.332,4.3711,4.4394,4.5273,4.6348,4.7226,4.8086,4.8965,4.9844,5.0664,5.1289,5.0058,4.9961,5.0586,5.1172,5.1406,5.1367,5.1172,5.123,5.1367,5.1172,5.1172,5.1262,5.1377,5.1327,5.1266,5.1379,5.1406,5.1406,5.1406,5.1406,5.1406,5.1406,5.1406,5.1406,5.1406,5.1406,5.1406,5.1406,5.1406,5.1406,5.1406,5.1406,5.1406,5.1406,5.1406,5.1406,5.1406,5.1406,5.1406,5.1406,5.1406,5.1406,5.1406,5.1406,5.1973,5.3301,5.459,5.5293,5.5293,5.6133,5.6601,5.6601,5.6601,5.6601,5.6601,5.6601,5.6601,5.6601,5.6601,5.6719,2.6946,2.7261,2.7512,2.9768,2.9895,0.0,3.0677,3.0885,0.0,3.2806,0.0,0.0,0.0,0.0,0.0,3.817,3.9354,4.0489,4.0739,4.2258,4.3951,4.5509,4.574,4.572,4.5605,4.4797,4.4297,4.4297,4.3605,4.3508,4.4259,4.4355,4.4816,4.5776,4.4354,4.3629,4.3691,4.2168,4.1719,4.2383,4.1719,4.2187,4.3691,4.3769,4.4707,4.6348,4.7226,4.8086,4.8965,4.9844,5.0664,5.1152,4.873,4.7812,4.8164,5.0527,5.1406,5.1289,5.0547,5.0781,5.1289,5.0527,5.0781,5.1386,5.1403,5.1386,5.1382,5.1398,5.1406,5.1406,5.1406,5.1406,5.1406,5.1406,5.1406,5.1406,5.1406,5.1406,5.1406,5.1406,5.1406,5.1406,5.1406,5.1406,5.1406,5.1406,5.1406,5.1406,5.1406,5.1406,5.1406,5.1406,5.1406,5.1406,5.1406,5.1406,5.1445,5.1582,5.3926,5.5293,5.5293,5.6133,5.6601,5.6601,5.6601,5.6601,5.6601,5.6601,5.6601,5.6601,5.6601,5.7031,2.5449,2.6357,2.7428,2.8875,3.019,0.0,0.0,3.3365,3.4314,3.6123,3.5836,0.0,0.0,0.0,3.8185,3.8723,3.9335,4.0296,4.1893,4.3124,4.4278,4.5451,4.5124,4.4778,4.4778,4.4047,4.3547,4.3547,4.3739,4.397,4.4278,4.4797,4.4836,4.4239,4.4211,4.3506,4.2031,4.1973,4.1855,4.1641,4.1348,4.1797,4.291,4.3457,4.4355,4.5566,4.6992,4.8086,4.8965,4.9844,5.0371,5.0508,4.9004,4.8418,4.8594,5.0098,5.0976,5.1289,5.0488,5.0391,5.0605,5.0293,5.041,5.0742,5.125,5.1402,5.1401,5.1402,5.1406,5.1406,5.1406,5.1406,5.1406,5.1406,5.1406,5.1406,5.1406,5.1406,5.1406,5.1406,5.1406,5.1406,5.1406,5.1406,5.1406,5.1406,5.1406,5.1406,5.1406,5.1406,5.1406,5.1406,5.1406,5.1406,5.1406,5.1406,5.1406,5.1406,5.2832,5.3672,5.3672,5.5039,5.5781,5.5781,5.6328,5.6601,5.6601,5.6601,5.6601,5.6601,5.6601,5.707,2.5307,2.6478,2.8032,0.0,0.0,0.0,3.4573,3.5338,3.6147,3.7988,3.7905,0.0,0.0,0.0,0.0,0.0,3.9565,4.07,4.245,4.3624,4.4624,4.549,4.5066,4.4605,4.4335,4.3797,4.3374,4.3124,4.3605,4.3912,4.3912,4.4489,4.4355,4.3302,4.3666,4.3082,4.1465,4.1836,4.1738,4.1191,4.1465,4.2012,4.2832,4.3437,4.4336,4.5488,4.668,4.7676,4.8535,4.9121,4.9219,4.8965,4.8926,4.8555,4.8223,4.9375,5.0137,5.0488,4.9668,4.9551,4.9785,4.9785,4.998,5.0351,5.1152,5.1406,5.1406,5.1406,5.1406,5.1406,5.1406,5.1406,5.1406,5.1406,5.1406,5.1406,5.1406,5.1406,5.1406,5.1406,5.1406,5.1406,5.1406,5.1406,5.1406,5.1406,5.1406,5.1406,5.1406,5.1406,5.1406,5.1406,5.1406,5.1406,5.1406,5.1406,5.1406,5.1406,5.1953,5.2402,5.2695,5.4375,5.5293,5.5293,5.6152,5.6601,5.6601,5.6601,5.6601,5.6601,5.6601,5.7207,2.7201,2.8008,2.9426,0.0,0.0,0.0,3.604,3.6291,3.6375,3.7973,0.0,3.9412,3.7117,3.8777,0.0,3.8277,4.0142,4.1797,4.1797,4.3239,4.4605,4.549,4.5566,4.522,4.4374,4.4278,4.3932,4.3143,4.3085,4.3085,4.3085,4.3104,4.3184,4.338,4.2552,4.2183,4.2383,4.1601,4.1191,4.1211,4.2012,4.2851,4.3691,4.3691,4.4648,4.6289,4.6308,4.6797,4.7598,4.7598,4.709,4.6484,4.8203,4.7832,4.6523,4.8242,4.8887,4.8789,4.7891,4.8164,4.8887,4.8887,4.9473,5.0332,5.1133,5.1387,5.1406,5.1406,5.1406,5.1406,5.1406,5.1406,5.1406,5.1406,5.1406,5.1406,5.1406,5.1406,5.1406,5.1406,5.1406,5.1406,5.1406,5.1406,5.1406,5.1406,5.1406,5.1406,5.1406,5.1406,5.1406,5.1406,5.1406,5.1406,5.1406,5.1406,5.1406,5.1406,5.1406,5.1797,5.2656,5.4355,5.5293,5.5293,5.6152,5.6601,5.6601,5.6601,5.6601,5.6601,5.6601,5.7539,2.5075,2.644,0.0,0.0,0.0,0.0,0.0,3.6805,0.0,0.0,3.9107,3.8949,3.7051,3.7815,3.8777,3.8892,4.0546,4.1797,4.1797,4.2816,4.3855,4.4718,4.382,4.3267,4.363,4.2511,4.1678,4.1428,4.1893,4.22,4.22,4.2816,4.2934,4.2434,4.2305,4.1971,4.1419,4.1273,4.1191,4.1211,4.2012,4.2539,4.2832,4.4062,4.4902,4.543,4.6035,4.6797,4.7598,4.7598,4.7441,4.7207,4.7109,4.7129,4.7285,4.7793,4.8379,4.8789,4.7891,4.7773,4.7988,4.7988,4.8574,4.9433,5.0293,5.0957,5.1406,5.1406,5.1406,5.1406,5.1406,5.1406,5.1406,5.1406,5.1406,5.1406,5.1406,5.1406,5.1406,5.1406,5.1406,5.1406,5.1406,5.1406,5.1406,5.1406,5.1406,5.1406,5.1406,5.1406,5.1406,5.1406,5.1406,5.1406,5.1406,5.1406,5.1406,5.1406,5.1406,5.1523,5.1777,5.3457,5.4394,5.4394,5.584,5.6601,5.6601,5.6601,5.6601,5.6601,5.6601,5.7207,2.6974,2.8859,0.0,0.0,0.0,0.0,0.0,0.0,0.0,0.0,0.0,3.8108,3.6531,3.8027,3.9469,3.9315,4.1316,4.2857,4.2874,4.3104,4.3593,4.4471,4.3432,4.269,4.2864,4.1905,4.1112,4.077,4.1143,4.1393,4.1393,4.1931,4.2047,4.162,4.1706,4.1552,4.1082,4.1166,4.1367,4.1699,4.2519,4.3105,4.3476,4.4512,4.5195,4.5547,4.6074,4.6601,4.707,4.707,4.707,4.7031,4.6504,4.6621,4.707,4.707,4.7422,4.7793,4.7266,4.707,4.7148,4.748,4.8183,4.9062,4.9941,5.0762,5.1406,5.1406,5.1406,5.1406,5.1406,5.1406,5.1406,5.1406,5.1406,5.1406,5.1406,5.1406,5.1406,5.1406,5.1406,5.1406,5.1406,5.1406,5.1406,5.1406,5.1406,5.1406,5.1406,5.1406,5.1406,5.1406,5.1406,5.1406,5.1406,5.1406,5.1406,5.1406,5.1406,5.1406,5.1406,5.2734,5.3652,5.3984,5.5371,5.625,5.6601,5.6601,5.6601,5.6601,5.6601,5.707,3.0725,0.0,0.0,0.0,0.0,0.0,0.0,0.0,3.6592,3.7487,0.0,3.7043,3.583,3.895,4.1181,3.9677,4.2297,4.4451,4.4286,4.3712,4.3588,4.4394,4.3711,4.2911,4.221,4.2046,4.1665,4.0886,4.081,4.0815,4.0815,4.0808,4.087,4.0985,4.1003,4.1111,4.1301,4.1308,4.1719,4.2519,4.3398,4.4238,4.5,4.5078,4.5547,4.6308,4.6308,4.6308,4.6308,4.6308,4.6308,4.6308,4.6308,4.6308,4.6308,4.6308,4.6348,4.6426,4.6426,4.6426,4.6543,4.7344,4.8144,4.8945,4.9824,5.0644,5.1308,5.1387,5.1406,5.1406,5.1406,5.1406,5.1406,5.1406,5.1406,5.1406,5.1406,5.1406,5.1406,5.1406,5.1406,5.1406,5.1406,5.1406,5.1406,5.1406,5.1406,5.1406,5.1406,5.1406,5.1406,5.1406,5.1406,5.1406,5.1406,5.1406,5.1406,5.1406,5.1406,5.1406,5.1406,5.2246,5.3105,5.3984,5.4863,5.5723,5.6601,5.6601,5.6601,5.6601,5.6601,5.7012,2.6845,2.9379,0.0,0.0,0.0,0.0,0.0,3.742,3.7049,3.86,3.7817,3.6776,3.6493,3.8815,4.0696,4.0438,4.2714,4.406,4.28,4.2576,4.2607,4.2792,4.2149,4.1847,4.2296,4.1672,4.1158,4.0968,4.0863,4.0801,4.0801,4.0893,4.0966,4.0985,4.1101,4.1448,4.2052,4.2115,4.2558,4.3359,4.4277,4.4824,4.5019,4.5703,4.6113,4.6308,4.6308,4.6308,4.6308,4.6308,4.6308,4.6308,4.6308,4.6308,4.6308,4.6308,4.6738,4.7324,4.7324,4.7324,4.7344,4.7539,4.7734,4.8047,4.8926,4.9785,5.0586,5.1211,5.1406,5.1406,5.1406,5.1406,5.1406,5.1406,5.1406,5.1406,5.1406,5.1406,5.1406,5.1406,5.1406,5.1406,5.1406,5.1406,5.1406,5.1406,5.1406,5.1406,5.1406,5.1406,5.1406,5.1406,5.1406,5.1406,5.1406,5.1406,5.1406,5.1406,5.1406,5.1406,5.1406,5.2246,5.3105,5.3984,5.4863,5.5723,5.6601,5.6601,5.6601,5.6601,5.6601,5.6699,2.7854,0.0,0.0,0.0,0.0,0.0,3.7685,3.7334,3.7084,3.8392,3.7623,3.6834,3.7257,3.9065,4.0812,4.1748,4.3419,4.446,4.4066,4.3413,4.3125,4.3533,4.2884,4.2558,4.2988,4.2207,4.168,4.168,4.1604,4.1577,4.1577,4.2039,4.2105,4.1669,4.1738,4.1953,4.2347,4.2377,4.3031,4.4277,4.4766,4.5215,4.5644,4.6094,4.6308,4.6308,4.6308,4.6308,4.6308,4.6308,4.6308,4.6308,4.6308,4.6562,4.6914,4.6914,4.7461,4.8164,4.7734,4.7598,4.7539,4.7109,4.7266,4.7676,4.8144,4.8887,4.9746,5.0586,5.082,5.0918,5.1308,5.1406,5.1406,5.1406,5.1406,5.1406,5.1406,5.1406,5.1406,5.1406,5.1406,5.1406,5.1406,5.1406,5.1406,5.1406,5.1406,5.1406,5.1406,5.1406,5.1406,5.1406,5.1406,5.1406,5.1406,5.1406,5.1406,5.1406,5.1406,5.1406,5.1406,5.1836,5.248,5.3359,5.4238,5.5117,5.5976,5.6406,5.6601,5.6601,5.6601,5.6601,2.8972,0.0,3.4199,0.0,0.0,0.0,3.7747,3.7565,3.7315,3.7873,3.7199,3.6796,3.7815,3.9258,4.0947,4.2925,4.406,4.5002,4.58,4.4754,4.4141,4.4707,4.4141,4.3691,4.3691,4.3047,4.2617,4.2617,4.2617,4.2617,4.2617,4.3301,4.3379,4.2656,4.2617,4.268,4.2816,4.2835,4.3647,4.5194,4.5213,4.5605,4.6308,4.6308,4.6308,4.6308,4.6308,4.6308,4.6308,4.6308,4.6308,4.6308,4.6465,4.6973,4.7617,4.7773,4.8281,4.8808,4.8066,4.7734,4.748,4.6758,4.6914,4.7402,4.7558,4.8105,4.8867,4.9726,5.0078,5.0351,5.1016,5.1308,5.1406,5.1406,5.1406,5.1406,5.1406,5.1406,5.1406,5.1406,5.1406,5.1406,5.1406,5.1406,5.1406,5.1406,5.1406,5.1406,5.1406,5.1406,5.1406,5.1406,5.1406,5.1406,5.1406,5.1406,5.1406,5.1406,5.1406,5.1406,5.1406,5.1406,5.1738,5.2461,5.332,5.4277,5.5293,5.6015,5.6445,5.6601,5.6601,5.6601,0.0,0.0,0.0,0.0,0.0,0.0,0.0,0.0,3.8757,0.0,3.6757,3.6142,3.7719,3.8849,4.0389,4.2967,4.4174,4.4873,4.5106,4.4958,4.459,4.3945,4.3769,4.3691,4.3691,4.3594,4.3535,4.3535,4.3535,4.3535,4.3535,4.3633,4.3652,4.3535,4.3535,4.3826,4.4479,4.4582,4.5098,4.5954,4.608,4.6191,4.6308,4.6308,4.6308,4.6308,4.6308,4.6308,4.6308,4.6308,4.6308,4.6387,4.7129,4.75,4.7695,4.8457,4.8808,4.8887,4.8769,4.8223,4.7578,4.7461,4.6992,4.6601,4.7363,4.7676,4.7969,4.8828,4.9629,5.0215,5.0332,5.0879,5.1406,5.1406,5.1406,5.1406,5.1406,5.1406,5.1406,5.1406,5.1406,5.1406,5.1406,5.1406,5.1406,5.1406,5.1406,5.1406,5.1406,5.1406,5.1406,5.1406,5.1406,5.1406,5.1406,5.1406,5.1406,5.1406,5.1406,5.1406,5.1406,5.1406,5.1445,5.1562,5.2422,5.3672,5.5293,5.543,5.5859,5.6601,5.6601,5.6601,2.5953,0.0,0.0,0.0,0.0,0.0,3.8259,0.0,3.9181,3.8815,3.7757,3.7296,3.8561,3.9552,4.1054,4.3739,4.4165,4.4498,4.5579,4.4883,4.4316,4.4414,4.4433,4.4433,4.4433,4.4433,4.4433,4.4433,4.4433,4.4433,4.4433,4.4883,4.4922,4.4433,4.4433,4.457,4.4902,4.4977,4.5414,4.6212,4.6276,4.6308,4.6308,4.6308,4.6308,4.6308,4.6308,4.6308,4.6308,4.6308,4.6582,4.707,4.7441,4.7891,4.8379,4.8769,4.8906,4.8828,4.834,4.793,4.7519,4.7031,4.6601,4.6465,4.7344,4.7266,4.7266,4.9101,4.9551,4.9687,5.0625,5.1133,5.1406,5.1406,5.1406,5.1406,5.1406,5.1406,5.1406,5.1406,5.1406,5.1406,5.1406,5.1406,5.1406,5.1406,5.1406,5.1406,5.1406,5.1406,5.1406,5.1406,5.1336,5.1286,5.1286,5.1293,5.1289,5.1289,5.1367,5.1406,5.1406,5.1406,5.1406,5.1406,5.2266,5.332,5.457,5.5058,5.5742,5.6601,5.6601,5.6601,0.0,0.0,0.0,0.0,0.0,0.0,0.0,0.0,3.9465,3.9335,3.8969,3.8777,3.9061,3.9868,4.1228,4.3467,4.3516,4.384,4.5426,4.4512,4.4023,4.4902,4.4805,4.4668,4.4668,4.4863,4.5,4.5,4.5215,4.5332,4.5332,4.5957,4.5996,4.5351,4.5332,4.5332,4.5332,4.5332,4.5664,4.6308,4.6308,4.6308,4.6308,4.6308,4.6308,4.6308,4.6308,4.6308,4.6308,4.6308,4.668,4.7285,4.7519,4.8008,4.8594,4.8828,4.8769,4.8476,4.7832,4.7441,4.7168,4.6504,4.6308,4.6426,4.707,4.6973,4.7031,4.8984,4.9394,4.9512,5.0762,5.125,5.1406,5.1406,5.1406,5.1406,5.1406,5.1406,5.1406,5.1406,5.1406,5.1406,5.1406,5.1406,5.1406,5.1406,5.1406,5.1406,5.1406,5.1406,5.1406,5.1406,5.1306,5.1254,5.1203,5.12,5.1206,5.1191,5.1289,5.1367,5.1406,5.1406,5.1406,5.1406,5.2031,5.2793,5.3672,5.4316,5.5098,5.5937,5.6172,5.6269,0.0,0.0,0.0,0.0,0.0,0.0,0.0,0.0,3.9928,3.94,3.9985,4.0119,3.8638,3.9081,4.0004,4.1041,4.1914,4.2772,4.3711,4.3769,4.4023,4.4902,4.4277,4.3769,4.3769,4.4512,4.5,4.5,4.5762,4.623,4.623,4.6289,4.6289,4.623,4.623,4.623,4.623,4.623,4.6269,4.6308,4.6308,4.6308,4.6308,4.6308,4.6308,4.6308,4.6308,4.6308,4.6308,4.6308,4.6328,4.6445,4.7285,4.7637,4.7773,4.8594,4.8379,4.7656,4.7617,4.7051,4.6367,4.6308,4.6308,4.6308,4.6348,4.6914,4.7558,4.7695,4.8887,5.0156,5.0234,5.082,5.1406,5.1406,5.1406,5.1406,5.1406,5.1406,5.1406,5.1406,5.1406,5.1406,5.1406,5.1406,5.1406,5.1406,5.1406,5.1406,5.1406,5.1406,5.1406,5.1406,5.1386,5.133,5.1201,5.1202,5.1205,5.121,5.1211,5.1269,5.1387,5.1406,5.1406,5.1406,5.1445,5.1894,5.2773,5.2812,5.3281,5.416,5.498,5.5371,0.0,0.0,0.0,0.0,0.0,3.4711,3.6476,3.8554,4.0043,3.985,4.066,4.1085,4.0042,4.0193,4.0444,4.032,4.057,4.1289,4.2676,4.1933,4.1777,4.3164,4.3066,4.3086,4.3652,4.4492,4.5234,4.5781,4.6113,4.6308,4.6308,4.6308,4.6308,4.6308,4.6308,4.6308,4.6308,4.6308,4.6308,4.6308,4.6308,4.6308,4.6308,4.6308,4.6308,4.6308,4.6308,4.6308,4.6308,4.6308,4.6621,4.7168,4.748,4.7598,4.7637,4.7949,4.7519,4.6777,4.6777,4.6562,4.6308,4.6308,4.6308,4.6406,4.6953,4.7344,4.7832,4.8945,4.9726,5.0312,5.084,5.1172,5.1406,5.1406,5.1406,5.1406,5.1406,5.1406,5.1406,5.1406,5.1406,5.1406,5.1406,5.1406,5.1406,5.1406,5.1406,5.1406,5.1406,5.1406,5.1406,5.1406,5.1328,5.1222,5.1146,5.1192,5.1138,5.1017,5.1127,5.12,5.12,5.1206,5.123,5.1269,5.1269,5.1738,5.2695,5.2695,5.3144,5.4004,5.4316,5.4765,0.0,0.0,0.0,0.0,0.0,3.2183,3.5838,3.748,3.8594,3.9966,4.0975,4.1428,4.0822,4.0801,4.0567,3.9569,3.9687,4.0391,4.1797,4.1035,4.1074,4.3047,4.3008,4.2949,4.3242,4.4316,4.5117,4.541,4.5976,4.6308,4.6308,4.6308,4.6308,4.6308,4.6308,4.6308,4.6308,4.6308,4.6308,4.6308,4.6308,4.6308,4.6308,4.6308,4.6308,4.6308,4.6308,4.6308,4.6308,4.6308,4.6641,4.7168,4.7168,4.7168,4.7168,4.7168,4.6797,4.6308,4.6308,4.6308,4.6308,4.6308,4.6308,4.6406,4.6992,4.7578,4.8281,4.9433,5.0176,5.0723,5.1269,5.1406,5.1406,5.1406,5.1406,5.1406,5.1406,5.1406,5.1406,5.1406,5.1406,5.1406,5.1406,5.1406,5.1406,5.1406,5.1406,5.1406,5.1406,5.1406,5.1406,5.1406,5.1328,5.1216,5.1113,5.1138,5.1087,5.0906,5.1029,5.1099,5.1108,5.1102,5.112,5.1161,5.1171,5.1513,5.2207,5.2246,5.2558,5.3144,5.373,5.4941,0.0,0.0,0.0,0.0,0.0,0.0,3.6392,0.0,3.5492,3.9547,4.0802,4.1074,4.0758,4.0719,4.0227,3.868,3.9238,4.0156,4.0996,4.1152,4.209,4.459,4.4141,4.3301,4.248,4.3926,4.459,4.3808,4.5312,4.6269,4.6308,4.6308,4.6308,4.6308,4.6308,4.6308,4.6308,4.6308,4.6308,4.6308,4.6308,4.6308,4.6308,4.6308,4.6308,4.6308,4.6308,4.6308,4.6308,4.6308,4.6308,4.6308,4.6308,4.6308,4.6308,4.6308,4.6308,4.6308,4.6308,4.6308,4.6308,4.6308,4.6308,4.6308,4.6308,4.7519,4.8906,4.8906,5.0117,5.1406,5.1406,5.1406,5.1406,5.1406,5.1406,5.1406,5.1406,5.1406,5.1406,5.1406,5.1406,5.1406,5.1406,5.1406,5.1406,5.1406,5.1406,5.1406,5.1406,5.1406,5.1406,5.1406,5.1406,5.1313,5.1113,5.1099,5.1043,5.0907,5.0904,5.0972,5.1087,5.1087,5.1087,5.1087,5.1089,5.1128,5.1191,5.1328,5.1406,5.1445,5.3183,5.5879,1.9049,0.0,0.0,0.0,0.0,0.0,0.0,0.0,3.2364,3.6587,3.7737,3.8508,4.0246,4.1146,4.1127,3.9533,3.9004,3.8926,3.9277,3.9863,4.0762,4.209,4.2031,4.2031,4.2363,4.2832,4.3535,0.0,4.5098,4.5625,4.6269,4.6308,4.6308,4.6308,4.6308,4.6308,4.6308,4.6308,4.6308,4.6308,4.6308,4.6308,4.6308,4.6308,4.6308,4.6308,4.6308,4.6308,4.6308,4.6308,4.6308,4.6308,4.6308,4.6308,4.6308,4.6308,4.6308,4.6308,4.6308,4.6308,4.6308,4.6308,4.6308,4.6308,4.6308,4.7519,4.8906,4.8906,5.0117,5.1406,5.1406,5.1406,5.1406,5.1406,5.1406,5.1406,5.1406,5.1406,5.1406,5.1406,5.1406,5.1406,5.1406,5.1406,5.1406,5.1406,5.1406,5.1406,5.1406,5.1406,5.1406,5.1406,5.1406,5.1313,5.1113,5.1138,5.1087,5.091,5.0894,5.0933,5.0952,5.0875,5.0875,5.0952,5.0966,5.1006,5.1125,5.1206,5.1308,5.1445,5.3183,5.5879,0.0,0.0,0.0,0.0,0.0,0.0,0.0,2.9981,3.1454,3.6924,3.835,3.9128,4.0742,4.1223,4.1088,4.0215,3.9353,3.9016,3.9609,4.0117,4.0898,4.2109,4.2246,4.2285,4.2383,4.2734,4.3203,4.3867,4.4258,4.4844,4.5703,4.5762,4.5918,4.6289,4.6308,4.6308,4.6308,4.6308,4.6308,4.6308,4.6308,4.6308,4.6308,4.6308,4.6308,4.6308,4.6308,4.6308,4.6308,4.6308,4.6308,4.6308,4.6308,4.6308,4.6308,4.6308,4.6308,4.6308,4.6308,4.6308,4.6308,4.6308,4.6308,4.6367,4.6738,4.7812,4.8984,4.9336,5.0391,5.1406,5.1406,5.1406,5.1406,5.1406,5.1406,5.1406,5.1406,5.1406,5.1504,5.1875,5.1933,5.1933,5.1933,5.1933,5.1816,5.1445,5.1406,5.1406,5.1406,5.1406,5.1406,5.1406,5.1406,5.1313,5.1113,5.1138,5.1087,5.0914,5.0914,5.0914,5.0914,5.0837,5.0837,5.0914,5.0914,5.0991,5.1145,5.1187,5.1465,5.1973,5.373,5.6015,0.0,0.0,0.0,0.0,0.0,0.0,0.0,3.0799,3.1096,3.7632,3.925,3.9774,4.0553,4.0123,3.97,3.9842,3.9522,3.9677,4.0876,4.1113,4.1738,4.3242,4.3418,4.3125,4.2344,4.2969,4.3144,4.2441,4.3203,4.4043,4.4805,4.4941,4.5351,4.6133,4.625,4.6308,4.6308,4.6308,4.6308,4.6308,4.6308,4.6308,4.6308,4.6308,4.6308,4.6308,4.6308,4.6308,4.6308,4.6308,4.6308,4.6308,4.6308,4.6308,4.6308,4.6308,4.6308,4.6308,4.6308,4.6308,4.6308,4.6308,4.6308,4.6445,4.7226,4.8125,4.9101,5.0058,5.0859,5.1406,5.1406,5.1406,5.1406,5.1381,5.1377,5.1379,5.1364,5.1445,5.1777,5.2656,5.2676,5.2598,5.2676,5.2617,5.2285,5.1523,5.1406,5.1406,5.1406,5.1406,5.1406,5.1406,5.1406,5.1313,5.1113,5.1099,5.1049,5.0914,5.0914,5.0914,5.0933,5.0933,5.0933,5.0933,5.0932,5.1009,5.1164,5.1187,5.1777,5.2871,5.4531,5.6289,0.0,0.0,0.0,0.0,0.0,0.0,0.0,2.458,2.6022,0.0,2.8837,2.9505,3.3013,3.4064,3.4436,3.4553,3.6743,3.8797,3.9859,4.0605,4.1191,4.1641,4.1699,4.1621,4.1445,4.1582,4.1894,4.2363,4.3203,4.3769,4.3945,4.4629,4.5078,4.5254,4.5937,4.6308,4.6308,4.6308,4.6308,4.6308,4.6308,4.6308,4.6308,4.6308,4.6308,4.6308,4.6308,4.6308,4.6308,4.6308,4.6308,4.6308,4.6308,4.6308,4.6308,4.6308,4.6308,4.6308,4.6308,4.6308,4.6308,4.6308,4.6308,4.6328,4.6504,4.7656,4.9219,5.0742,5.1289,5.1406,5.1406,5.1406,5.1372,5.1263,5.1235,5.1228,5.1161,5.1749,5.2539,5.3418,5.2539,5.1875,5.2578,5.2129,5.1601,5.1426,5.1406,5.1406,5.1406,5.1406,5.1406,5.1406,5.1406,5.1313,5.1113,5.1099,5.1049,5.0914,5.0914,5.0952,5.1068,5.1068,5.1068,5.1068,5.1058,5.1034,5.0972,5.1128,5.207,5.3769,5.4805,5.6601,0.0,0.0,0.0,2.4793,0.0,0.0,0.0,0.0,2.5659,2.9044,2.8736,2.8775,3.1756,3.2295,3.2455,3.291,3.5504,3.7366,3.7082,3.9334,4.1016,4.1094,4.1152,4.1191,4.1191,4.1191,4.1367,4.1777,4.2578,4.3242,4.3672,4.4531,4.5195,4.5625,4.6074,4.6308,4.6308,4.6308,4.6308,4.6308,4.6308,4.6308,4.6308,4.6308,4.6308,4.6308,4.6308,4.6308,4.6308,4.6308,4.6308,4.6308,4.6308,4.6308,4.6308,4.6308,4.6257,4.6199,4.6199,4.6164,4.6108,4.6108,4.6158,4.6364,4.7233,4.8682,5.0217,5.1024,5.126,5.126,5.126,5.126,5.1219,5.1179,5.1136,5.1143,5.1095,5.1501,5.2107,5.2985,5.2207,5.1816,5.3125,5.2637,5.1884,5.1384,5.1288,5.1296,5.1307,5.1308,5.1328,5.1387,5.1406,5.1313,5.1113,5.1099,5.1049,5.0914,5.0972,5.1029,5.1106,5.1126,5.1126,5.1106,5.1106,5.1087,5.1049,5.1522,5.2045,5.2656,5.4902,5.664,0.0,0.0,0.0,0.0,0.0,2.5688,0.0,0.0,0.0,0.0,0.0,0.0,0.0,3.0314,3.0198,3.0852,3.3353,3.4743,3.3346,3.6664,3.9366,3.9704,4.0562,4.1009,4.0677,4.0349,4.0507,4.1367,4.1406,4.1992,4.3379,4.4433,4.5312,4.6035,4.6211,4.6308,4.6308,4.6308,4.6308,4.6308,4.6308,4.6308,4.6308,4.6308,4.6308,4.6308,4.6308,4.6308,4.6308,4.6308,4.6308,4.6308,4.6308,4.6285,4.6264,4.6264,4.618,4.6066,4.6061,4.5998,4.591,4.591,4.6092,4.6608,4.8188,4.972,5.0951,5.1069,5.1105,5.1105,5.1105,5.1105,5.1086,5.1066,5.1061,5.1049,5.1029,5.1203,5.1586,5.2299,5.1989,5.207,5.3496,5.3027,5.2167,5.1331,5.1203,5.1196,5.1196,5.1206,5.125,5.1387,5.1406,5.1318,5.1133,5.1106,5.1049,5.0914,5.1029,5.1087,5.1101,5.1186,5.1196,5.1119,5.1142,5.1164,5.1183,5.1819,5.1826,5.1328,5.5098,5.6758,0.0,0.0,0.0,0.0,2.8203,0.0,0.0,0.0,0.0,2.2081,0.0,0.0,0.0,0.0,0.0,0.0,2.7332,2.964,2.8756,3.106,3.3438,3.5046,3.8565,4.0266,3.8773,3.7298,3.8049,4.1972,3.9492,3.918,4.2383,4.4101,4.5058,4.5137,4.5898,4.6308,4.6308,4.6308,4.6308,4.6308,4.6308,4.6308,4.6308,4.6308,4.6308,4.6308,4.6308,4.6308,4.6308,4.6308,4.6308,4.6308,4.6308,4.6235,4.6117,4.6117,4.6042,4.5919,4.5928,4.5907,4.5902,4.5902,4.6442,4.7261,4.8243,4.9199,5.0125,5.0874,5.1086,5.1086,5.1086,5.1086,5.1066,5.0951,5.0933,5.0895,5.076,5.1395,5.2027,5.2117,5.2269,5.248,5.2793,5.2129,5.1464,5.1234,5.1203,5.1202,5.1196,5.1206,5.125,5.1387,5.1406,5.1347,5.1209,5.1127,5.1049,5.0914,5.1029,5.1095,5.1089,5.1269,5.1318,5.1181,5.1308,5.1279,5.1106,5.1356,5.1464,5.1484,5.5762,5.7344,0.0,0.0,0.0,0.0,0.0,0.0,2.3501,0.0,2.187,0.0,0.0,0.0,0.0,0.0,0.0,0.0,2.5524,2.7178,2.588,0.0,3.1653,3.3459,0.0,0.0,3.8138,3.6771,3.7596,4.1903,3.9505,3.938,4.291,4.4707,4.5664,4.5742,4.6113,4.6308,4.6308,4.6308,4.6308,4.6308,4.6308,4.6308,4.6308,4.6308,4.6308,4.6308,4.6308,4.6308,4.6308,4.6308,4.6308,4.6308,4.6308,4.6215,4.6103,4.6103,4.5989,4.5838,4.5844,4.5796,4.5738,4.5815,4.6761,4.7908,4.8261,4.9346,5.0491,5.0779,5.0875,5.0875,5.0875,5.0875,5.0856,5.0818,5.0779,5.076,5.0702,5.1068,5.1414,5.1404,5.1566,5.1715,5.1813,5.1582,5.1346,5.1166,5.1153,5.1106,5.1049,5.1078,5.1166,5.1224,5.1258,5.1206,5.105,5.0993,5.0933,5.0779,5.0987,5.112,5.1152,5.1304,5.1348,5.1191,5.1219,5.1196,5.1164,5.2179,5.2492,5.2219,5.5075,5.6465,3.2676,0.0,0.0,0.0,0.0,0.0,0.0,0.0,0.0,0.0,0.0,0.0,0.0,0.0,0.0,0.0,0.0,2.5322,0.0,2.6043,0.0,0.0,0.0,0.0,0.0,3.4836,3.5441,4.0676,3.8459,3.8827,4.3319,4.5132,4.6106,4.623,4.625,4.6269,4.6308,4.6308,4.6308,4.6308,4.6308,4.6308,4.6308,4.6308,4.6308,4.6308,4.6308,4.6308,4.6308,4.6308,4.6308,4.6308,4.6308,4.6203,4.6055,4.6059,4.593,4.5757,4.5757,4.568,4.5643,4.599,4.7066,4.8278,4.8529,4.9644,5.0837,5.0721,5.0702,5.0702,5.0702,5.0702,5.0702,5.0702,5.0702,5.0702,5.0702,5.0779,5.0856,5.0856,5.0952,5.107,5.1108,5.1238,5.1299,5.1131,5.1111,5.1049,5.0933,5.0979,5.1066,5.1103,5.1138,5.1106,5.0972,5.0933,5.0875,5.0818,5.0975,5.115,5.125,5.1348,5.1348,5.1269,5.1206,5.1206,5.126,5.268,5.325,5.3092,5.5079,5.6211,0.0,0.0,0.0,2.8597,0.0,0.0,0.0,0.0,2.3589,0.0,0.0,0.0,0.0,0.0,0.0,0.0,0.0,0.0,0.0,0.0,0.0,0.0,0.0,0.0,0.0,2.991,3.0102,0.0,3.5233,3.6234,4.3049,4.4998,4.5975,4.6094,4.6113,4.6172,4.6308,4.6308,4.6308,4.6308,4.6308,4.6308,4.6308,4.6308,4.6308,4.6308,4.6308,4.6308,4.6308,4.6308,4.6308,4.6308,4.6308,4.614,4.592,4.5905,4.5776,4.5605,4.5605,4.5586,4.574,4.6586,4.7432,4.8259,4.9106,4.999,5.0702,5.0702,5.0702,5.0702,5.0702,5.0702,5.0702,5.0702,5.0702,5.0702,5.0702,5.0702,5.0702,5.0702,5.0818,5.0914,5.0914,5.107,5.1181,5.1111,5.1111,5.1049,5.0933,5.0895,5.0977,5.1083,5.1099,5.1106,5.1087,5.0972,5.0952,5.1087,5.1106,5.1192,5.1386,5.1406,5.1406,5.1387,5.1386,5.1395,5.1395,5.2279,5.3156,5.4023,5.6601,5.7383,0.0,0.0,3.912,3.2745,0.0,0.0,0.0,0.0,0.0,0.0,0.0,0.0,0.0,0.0,0.0,0.0,0.0,0.0,0.0,0.0,0.0,0.0,0.0,0.0,0.0,0.0,0.0,0.0,3.6155,0.0,4.2994,4.4349,4.5272,4.5941,4.6058,4.6113,4.6172,4.6269,4.6308,4.6308,4.6308,4.6308,4.6308,4.6308,4.6308,4.6308,4.6308,4.6308,4.6308,4.6308,4.6308,4.6308,4.6308,4.6144,4.5891,4.5901,4.5776,4.5586,4.5586,4.597,4.6509,4.6797,4.7836,4.9029,4.9317,5.001,5.0702,5.0702,5.0702,5.0702,5.0702,5.0702,5.0702,5.0702,5.0702,5.0702,5.0702,5.0702,5.0702,5.0702,5.0741,5.0818,5.0895,5.0948,5.0984,5.0967,5.0969,5.0933,5.0779,5.0856,5.0874,5.0839,5.0911,5.0933,5.0856,5.0779,5.0837,5.0972,5.1057,5.116,5.127,5.1342,5.1406,5.1406,5.1308,5.1318,5.1395,5.2764,5.3632,5.4043,5.6094,5.6875,4.0944,4.1655,0.0,3.5644,3.41,0.0,2.6191,0.0,2.6481,0.0,0.0,0.0,0.0,0.0,0.0,0.0,0.0,0.0,0.0,2.1088,0.0,0.0,0.0,0.0,0.0,0.0,0.0,0.0,0.0,0.0,0.0,4.3972,4.4874,4.5834,4.5959,4.6035,4.6094,4.6191,4.625,4.6308,4.6308,4.6308,4.6308,4.6308,4.6308,4.6308,4.6308,4.6308,4.6308,4.6308,4.6308,4.6308,4.6297,4.6142,4.5891,4.5901,4.5776,4.5586,4.5586,4.6163,4.6951,4.724,4.8279,4.9452,4.976,5.024,5.0702,5.0702,5.0702,5.0702,5.0702,5.0702,5.0702,5.0702,5.0702,5.0702,5.0702,5.0702,5.0702,5.0702,5.0702,5.0721,5.0818,5.0875,5.0914,5.0914,5.0914,5.0856,5.0721,5.0779,5.0818,5.0702,5.0779,5.0779,5.0702,5.0702,5.0779,5.0972,5.1056,5.115,5.1263,5.1347,5.1406,5.1406,5.1328,5.1465,5.1875,5.3221,5.4067,5.4492,5.5937,5.6601]},{"header":{"parameterUnit":"m.s-1","parameterCategory":1,"la1":30.6,"la2":29.2853,"lo1":-89.7004,"lo2":-87.6739,"dx":0.0162,"dy":0.0183,"nx":112,"ny":82,"refTime":"2022-12-25T18:00:00:Z","depth":0,"parameterNumber":3,"parameterNumberName":"V-component_of_WINDS"},"data":[0.0,0.0,0.0,0.0,0.0,0.0,0.0,0.0,0.0,0.0,0.0,0.0,0.0,0.0,0.0,0.0,0.0,0.0,0.0,0.0,0.0,0.0,0.0,0.0,0.0,0.0,0.0,0.0,0.0,0.0,0.0,0.0,0.0,0.0,0.0,0.0,0.0,0.0,0.0,0.0,0.0,0.0,0.0,0.0,0.0,0.0,0.0,0.0,0.0,0.0,0.0,0.0,0.0,0.0,0.0,0.0,0.0,0.0,0.0,0.0,0.0,0.0,0.0,0.0,0.0,0.0,0.0,0.0,0.0,0.0,0.0,0.0,0.0,0.0,0.0,0.0,0.0,0.0,0.0,0.0,0.0,0.0,0.0,0.0,0.0,0.0,0.0,0.0,0.0,0.0,-0.5037,-0.2444,0.1318,0.4383,0.6241,0.7664,0.762,0.5712,0.0,0.0,0.0,0.0,0.0,0.0,0.0,0.0,0.0,0.0,0.0,0.0,0.0,0.0,0.0,0.0,0.0,0.0,0.0,0.0,0.0,0.0,0.0,0.0,0.0,0.0,0.0,0.0,0.0,0.0,0.0,0.0,0.0,0.0,0.0,0.0,0.0,0.0,0.0,0.0,0.0,0.0,0.0,0.0,0.0,0.0,0.0,0.0,0.0,0.0,0.0,0.0,0.0,0.0,0.0,0.0,0.0,0.0,0.0,0.0,0.0,0.0,0.0,0.0,0.0,0.0,0.0,0.0,0.0,0.0,0.0,0.0,0.0,0.0,0.0,0.0,0.0,0.0,0.0,0.0,0.0,0.0,0.0,0.0,0.0,0.0,0.0,0.0,0.0,0.0,0.0,0.0,0.0,0.0,0.0,0.0,0.0,0.0,0.0,0.0,0.0,0.0,0.0,0.0,-0.4139,-0.0751,0.2023,0.452,0.6774,0.7285,0.7069,0.5997,0.0,0.0,0.0,0.0,0.0,0.0,0.0,0.0,0.0,0.0,0.0,0.0,0.0,0.0,0.0,0.0,0.0,0.0,0.0,0.0,0.0,0.0,0.0,0.0,0.0,0.0,0.0,0.0,0.0,0.0,0.0,0.0,0.0,0.0,0.0,0.0,0.0,0.0,0.0,0.0,0.0,0.0,0.0,0.0,0.0,0.0,0.0,0.0,0.0,0.0,0.0,0.0,0.0,0.0,0.0,0.0,0.0,0.0,0.0,0.0,0.0,0.0,0.0,0.0,0.0,0.0,0.0,0.0,0.0,0.0,0.0,0.0,0.0,0.0,0.0,0.0,0.0,0.0,0.0,0.0,0.0,0.0,0.0,0.0,0.0,0.0,0.0,0.0,0.0,0.0,0.0,0.0,0.0,0.0,0.0,0.0,0.0,0.0,0.0,0.0,0.0,0.0,0.0,-0.5011,-0.2879,-0.0245,0.2132,0.4586,0.6885,0.7296,0.7057,0.608,0.6591,0.0,0.0,0.0,0.0,0.0,0.0,0.0,0.0,0.0,0.0,0.0,0.0,0.0,0.0,0.0,0.0,0.0,0.0,0.0,0.0,0.0,0.0,0.0,0.0,0.0,0.0,0.0,0.0,0.0,0.0,0.0,0.0,0.0,0.0,0.0,0.0,0.0,0.0,0.0,0.0,0.0,0.0,0.0,0.0,0.0,0.0,0.0,0.0,0.0,0.0,0.0,0.0,0.0,0.0,0.0,0.0,0.0,0.0,0.0,0.0,0.0,0.0,0.0,0.0,0.0,0.0,0.0,0.0,0.0,0.0,0.0,0.0,0.0,0.0,0.0,0.0,0.0,0.0,0.0,0.0,0.0,0.0,0.0,0.0,0.0,0.0,0.0,0.0,0.0,0.0,0.0,0.0,0.0,0.0,0.0,0.0,0.0,0.0,0.0,0.0,0.0,0.0,-0.4515,-0.2021,-0.0172,0.2119,0.453,0.6863,0.7226,0.6993,0.6086,0.6253,0.0,0.0,0.0,0.0,0.0,0.0,0.0,0.0,0.0,0.0,0.0,0.0,0.0,0.0,0.0,0.0,0.0,0.0,0.0,0.0,0.0,0.0,0.0,0.0,0.0,0.0,0.0,0.0,0.0,0.0,0.0,0.0,0.0,0.0,0.0,0.0,0.0,0.0,0.0,0.0,0.0,0.0,0.0,0.0,0.0,0.0,0.0,0.0,0.0,0.0,0.0,0.0,0.0,0.0,0.0,0.0,0.0,0.0,0.0,0.0,0.0,0.0,0.0,0.0,0.0,0.0,0.0,0.0,0.0,0.0,0.0,0.0,0.0,0.0,0.0,0.0,0.0,0.0,0.0,0.0,0.0,0.0,0.0,0.0,0.0,0.0,0.0,0.0,0.0,0.0,0.0,0.0,0.0,0.0,0.0,0.0,0.0,0.0,0.0,0.0,0.0,0.0,-0.3499,-0.1968,-0.0173,0.2119,0.4556,0.6907,0.6816,0.6448,0.6224,0.5828,0.0,0.0,0.0,0.0,0.0,0.0,0.0,0.0,0.0,0.0,0.0,0.0,0.0,0.0,0.0,0.0,0.0,0.0,0.0,0.0,0.0,0.0,0.0,0.0,0.0,0.0,0.0,0.0,0.0,0.0,0.0,0.0,0.0,0.0,0.0,0.0,0.0,0.0,0.0,0.0,0.0,0.0,0.0,0.0,0.0,0.0,0.0,0.0,0.0,0.0,0.0,0.0,0.0,0.0,0.0,0.0,0.0,0.0,0.0,0.0,0.0,0.0,0.0,0.0,0.0,0.0,0.0,0.0,0.0,0.0,0.0,0.0,0.0,0.0,0.0,0.0,0.0,0.0,0.0,0.0,0.0,0.0,0.0,0.0,0.0,0.0,0.0,0.0,0.0,0.0,0.0,0.0,0.0,0.0,0.0,0.0,0.0,0.0,0.0,0.0,0.0,0.0,-0.3441,-0.1606,-0.0176,0.2136,0.4559,0.692,0.6749,0.6392,0.6185,0.0,0.0,0.0,0.0,0.0,0.0,0.0,0.0,0.0,0.0,0.0,0.0,0.0,0.0,0.0,0.0,0.0,0.0,0.0,0.0,0.0,0.0,0.0,0.0,0.0,0.0,0.0,0.0,0.0,0.0,0.0,0.0,0.0,0.0,0.0,0.0,0.0,0.0,0.0,0.0,0.0,0.0,0.0,0.0,0.0,0.0,0.0,0.0,0.0,0.0,0.0,0.0,0.0,0.0,0.0,0.0,0.0,0.0,0.0,0.0,0.0,0.0,0.0,0.0,0.0,0.0,0.0,0.0,0.0,0.0,0.0,0.0,0.0,0.0,0.0,0.0,0.0,0.0,0.0,0.0,0.0,0.0,0.0,0.0,0.0,0.0,0.0,0.0,0.0,0.0,0.0,0.0,0.0,0.0,0.0,0.0,0.0,0.0,0.0,0.0,0.0,0.0,-0.5767,-0.3669,-0.1638,-0.018,0.2272,0.4639,0.6902,0.678,0.6504,0.6193,0.0,0.0,0.0,0.0,0.0,0.0,0.0,0.0,0.0,0.0,0.0,0.0,0.0,0.0,0.0,0.0,0.0,0.0,0.0,0.0,0.0,0.0,0.0,0.0,0.0,0.0,0.0,0.0,0.0,0.0,0.0,0.0,0.0,0.0,0.0,0.0,0.0,0.0,0.0,0.0,0.0,0.0,0.0,0.0,0.0,0.0,0.0,0.0,0.0,0.0,0.0,0.0,0.0,0.0,0.0,0.0,0.0,0.0,0.0,0.0,0.0,0.0,0.0,0.0,0.0,0.0,0.0,0.0,0.0,0.0,0.0,0.0,0.0,0.0,0.0,0.0,0.0,0.0,0.0,0.0,0.0,0.0,0.0,0.0,0.0,0.0,0.0,0.0,0.0,0.0,0.0,0.0,0.0,0.0,0.0,0.0,0.0,0.0,0.0,0.0,0.0,0.0,-0.5853,-0.4246,-0.229,-0.0184,0.2443,0.481,0.6964,0.6939,0.6738,0.0,0.0,0.0,0.0,0.0,0.0,0.0,0.0,0.0,0.0,0.0,0.0,0.0,0.0,0.0,0.0,0.0,0.0,0.0,0.0,0.0,0.0,0.0,0.0,0.0,0.0,0.0,0.0,0.0,0.0,0.0,0.0,0.0,0.0,0.0,0.0,0.0,0.0,0.0,0.0,0.0,0.0,0.0,0.0,0.0,0.0,0.0,0.0,0.0,0.0,0.0,0.0,0.0,0.0,0.0,0.0,0.0,0.0,0.0,0.0,0.0,0.0,0.0,0.0,0.0,0.0,0.0,0.0,0.0,0.0,0.0,0.0,0.0,0.0,0.0,0.0,0.0,0.0,0.0,0.0,0.0,0.0,0.0,0.0,0.0,0.0,0.0,0.0,0.0,0.0,0.0,0.0,0.0,0.0,0.0,0.0,0.0,0.0,0.0,0.0,0.0,0.0,0.0,-0.5837,-0.4196,-0.2342,-0.0188,0.2368,0.5029,0.7493,0.7183,0.6709,0.6337,0.0,0.0,0.0,0.0,0.0,0.0,0.0,0.0,0.0,0.0,0.0,0.0,0.0,0.0,0.0,0.0,0.0,0.0,0.0,0.0,0.0,0.0,0.0,0.0,0.0,0.0,0.0,0.0,0.0,0.0,0.0,0.0,0.0,0.0,0.0,0.0,0.0,0.0,0.0,0.0,0.0,0.0,0.0,0.0,0.0,0.0,0.0,0.0,0.0,0.0,0.0,0.0,0.0,0.0,0.0,0.0,0.0,0.0,0.0,0.0,0.0,0.0,0.0,0.0,0.0,0.0,0.0,0.0,0.0,0.0,0.0,0.0,0.0,0.0,0.0,0.0,0.0,0.0,0.0,0.0,0.0,0.0,0.0,0.0,0.0,0.0,0.0,0.0,0.0,0.0,0.0,0.0,0.0,0.0,0.0,0.0,0.0,0.0,0.0,0.0,0.0,0.0,-0.6346,-0.4407,-0.2272,-0.019,0.1436,0.3941,0.7647,0.749,0.7071,0.7107,0.0,0.0,0.0,0.0,0.0,0.0,0.0,0.0,0.0,0.0,0.0,0.0,0.0,0.0,0.0,0.0,0.0,0.0,0.0,0.0,0.0,0.0,0.0,0.0,0.0,0.0,0.0,0.0,0.0,0.0,0.0,0.0,0.0,0.0,0.0,0.0,0.0,0.0,0.0,0.0,0.0,0.0,0.0,0.0,0.0,0.0,0.0,0.0,0.0,0.0,0.0,0.0,0.0,0.0,0.0,0.0,0.0,0.0,0.0,0.0,0.0,0.0,0.0,0.0,0.0,0.0,0.0,0.0,0.0,0.0,0.0,0.0,0.0,0.0,0.0,0.0,0.0,0.0,0.0,0.0,0.0,0.0,0.0,0.0,0.0,0.0,0.0,0.0,0.0,0.0,0.0,0.0,0.0,0.0,0.0,0.0,0.0,0.0,0.0,0.0,0.0,0.0,-0.6972,-0.5004,-0.2558,-0.0285,0.0,0.2053,0.7183,0.7465,0.7628,0.8171,0.0,0.0,0.0,0.0,0.0,0.0,0.0,0.0,0.0,0.0,0.0,0.0,0.0,0.0,0.0,0.0,0.0,0.0,0.0,0.0,0.0,0.0,0.0,0.0,0.0,0.0,0.0,0.0,0.0,0.0,0.0,0.0,0.0,0.0,0.0,0.0,0.0,0.0,0.0,0.0,0.0,0.0,0.0,0.0,0.0,0.0,0.0,0.0,0.0,0.0,0.0,0.0,0.0,0.0,0.0,0.0,0.0,0.0,0.0,0.0,0.0,0.0205,0.0,0.0,0.0,0.0,0.0,0.0,0.0,0.0,0.0,0.0,0.0,0.0,0.0,0.0,0.0,0.0,0.0,0.0,0.0,0.0,0.0,0.0,0.0,0.0,0.0,0.0,0.0,0.0,0.0,0.0,0.0,0.0,0.0,0.0,0.0,0.0,0.0,0.0,0.0,0.0,-0.6979,-0.6572,-0.4637,-0.0476,0.0,0.127,0.46,0.6599,0.7805,0.8304,0.7509,0.0,0.0,0.0,0.0,0.0,0.0,0.0,0.0,0.0,0.0,0.0,0.0,0.0,0.0,0.0,0.0,0.0,0.0,0.0,0.0,0.0,0.0,0.0,0.0,0.0,0.0,0.0,0.0,0.0,0.0,0.0,0.0,0.0,0.0,0.0,0.0,0.0,0.0,0.0,0.0,0.0,0.0,0.0,0.0,0.0,0.0,0.0,0.0,0.0,0.0,0.0,0.0,0.0,0.0,0.0,0.0,0.0,0.0,0.0,0.0,0.0481,0.0,0.0,0.0,0.0,0.0,0.0,0.0,0.0,0.0,0.0,0.0,0.0,0.0,0.0,0.0,0.0,0.0,0.0,0.0,0.0,0.0,0.0,0.0,0.0,0.0,0.0,0.0,0.0,0.0,0.0,0.0,0.0,0.0,0.0,0.0,0.0,0.0,0.0,0.0,0.0,-0.4616,-0.6022,-0.5317,-0.0469,0.0,0.105,0.3564,0.616,0.8101,0.9322,0.8217,0.0,0.0,0.0,0.0,0.0,0.0,0.0,0.0,0.0,0.0,0.0,0.0,0.0,0.0,0.0,0.0,0.0,0.0,0.0,0.0,0.0,0.0,0.0,0.0,0.0,0.0,0.0,0.0,0.0,0.0,0.0,0.0,0.0,0.0,0.0,0.0,0.0,0.0,0.0,0.0,0.0,0.0,0.0,0.0,0.0,0.0,0.0,0.0,0.0,0.0,0.0,0.0,0.0,0.0,0.0,0.0,0.0,0.0,0.0,0.0,0.0822,0.2282,0.2958,0.0,0.0,0.0,0.0,0.0,0.0,0.0,0.0,0.0,0.0,0.0,0.0,0.0,0.0,0.0,0.0,0.0,0.0,0.0,0.0,0.0,0.0,0.0,0.0,0.0,0.0,0.0,0.0,0.0,0.0,0.0,0.0,0.0,0.0,0.0,0.0,0.0,0.0,-0.2072,-0.4138,-0.4361,-0.046,0.0,0.1023,0.3394,0.5982,0.8375,1.0284,0.899,0.8949,0.0,0.0,0.0,0.0,0.0,0.0,0.0,0.0,0.0,0.0,0.0,0.0,0.0,0.0,0.0,0.0,0.0,0.0,0.0,0.0,0.0,0.0,0.0,0.0,0.0,0.0,0.0,0.0,0.0,0.0,0.0,0.0,0.0,0.0,0.0,0.0,0.0,0.0,0.0,0.0,0.0,0.0,0.0,0.0,0.0,0.0,0.0,-0.1831,-0.0,0.0,0.0,0.0,0.0,0.0,0.0,0.0,0.0,0.0,0.0,0.0,0.0598,0.4022,0.0,0.0,0.0,0.0,0.0,0.0,0.0,0.0,0.0,0.0,0.0,0.0,0.0,0.0,0.0,0.0,0.0,0.0,0.0,0.0,0.0,0.0,0.0,0.0,0.0,0.0,0.0,0.0,0.0,0.0,-0.023,0.0,0.0,0.0,0.0,0.0,0.0,0.0,-0.1962,-0.1302,-0.0733,-0.009,0.0,0.1017,0.3421,0.5818,0.8121,1.0289,1.008,1.0274,1.1226,1.0641,0.0,0.0,0.0,0.0,0.0,0.0,0.0,0.0,0.0,0.0,0.0,0.0,0.0,0.0,0.0,0.0,0.0,0.0,0.0,0.0,0.0,0.0,0.0,0.0,0.0,0.0,0.0,0.0,0.0,-0.2743,-0.2273,-0.0251,0.0,0.0,0.0,0.0,0.0,0.0,0.0,0.0,0.0,0.0,0.0,0.0,-0.0757,-0.0791,-0.0,0.0,0.0,0.0,0.0,0.0,0.0,0.0,0.0,0.0,0.0,0.0,0.0243,0.3306,0.4653,0.467,0.0,0.0,0.0,0.0,0.1736,0.1614,0.2478,0.4294,0.6244,0.6133,0.0,0.0,0.0,0.0,0.0,0.0,0.0,0.0,0.0,0.0,0.0,0.0,0.0,0.0,0.0,0.0,0.0,0.0,0.0,-0.0187,-0.0699,0.0,0.0,0.0,0.0,-0.3669,-0.3387,-0.139,0.0,0.0,0.0,0.0999,0.3438,0.5724,0.7778,0.9419,0.9984,1.0637,1.1674,1.1261,1.0401,0.0,0.0,0.0,0.0,0.0,0.0,0.0,0.0,0.0,0.0,0.0,0.0,0.0,0.0,0.0,0.0,0.0,0.0,0.0,0.0,0.0,0.0,0.0,0.0,0.0,0.0,0.0,0.0,-0.234,-0.338,-0.1575,-0.0557,0.0,0.0,0.0,0.0,0.0,0.0,0.0,0.0,0.0,0.0,0.0,0.0,0.0,0.0,0.0,0.0,0.0,0.0,0.0,0.0,0.0,0.0,0.0,0.0,0.0,0.0094,0.1976,0.4095,0.6176,0.5411,0.4609,0.3691,0.2345,0.1939,0.1845,0.0449,0.2743,0.6318,0.6313,0.6171,0.5871,0.4712,0.0,0.0,0.0,0.0,0.0,0.0,0.0,0.0,0.0,0.0,0.0,0.0,0.0,0.0,0.0,0.0,0.0,0.0,0.0,0.0,0.0,-0.321,-0.4046,-0.5206,-0.2213,0.0,0.0,0.0,0.0986,0.3392,0.5735,0.7616,0.8807,0.9781,1.0784,1.1957,1.1993,1.1643,1.0974,0.0,0.0,0.0,0.0,0.0,0.0,0.0,0.0,0.0,0.0,0.0,0.0,0.0,0.0,0.0,0.0,0.0,0.0,0.0,0.0,0.0,0.0,0.0,0.0,0.0,0.0,0.0,0.0,0.0,-0.4728,-0.2098,0.0,0.0,0.0,0.0,0.0,0.0,0.0,0.0,0.0,0.0,0.0,0.0,0.0,0.0,0.0,0.0,0.0,0.0,0.0,0.0,0.0,0.0,0.0,0.0,0.0,0.0,0.0094,0.2877,0.7006,0.6464,0.516,0.3609,0.3555,0.2037,0.0084,0.0,0.2749,0.6307,0.6337,0.6255,0.6176,0.5494,0.28,0.0,0.0,0.0,0.0,0.0,0.0,0.0,0.0,0.0,0.0,0.0,0.0,0.0,0.0,0.0,0.0,0.0,0.0,-0.0076,-0.0159,-0.2095,-0.4605,-0.7426,-0.321,0.0,0.0,0.0,0.0986,0.3392,0.5735,0.7616,0.8807,1.0,1.1107,1.2219,1.3035,1.2986,1.1824,1.0994,0.0,0.0,0.0,0.0,0.0,0.0,0.0,0.0,0.0,0.0,0.0,0.0,0.0,0.0,0.0,0.0,0.0,0.0,0.0,0.0,0.0,0.0,0.0,0.0,0.0,0.0,0.0,0.0,-0.1802,-0.0792,0.0,0.0,0.0,0.0,0.0,0.0,0.0,0.0,0.0,0.0,0.0,0.0,0.0,0.0,0.0,0.0,0.0,0.0,0.0,0.0,0.0,0.0,0.0,0.0,0.0,0.0,0.0,0.1043,0.2703,0.3997,0.487,0.5365,0.5365,0.3078,0.0,0.0,0.1005,0.2458,0.3833,0.5193,0.6287,0.6062,0.3155,0.0,0.0,0.0,0.0,0.0,0.0,0.0,0.0,0.0,0.0,0.0,0.0,0.0,0.0,0.0,0.0,0.0,0.0,0.0,0.0,-0.0718,-0.1685,-0.2734,-0.1151,0.0,0.0,0.0,0.0366,0.1185,0.5027,0.7552,0.7894,0.9041,1.0116,1.1263,1.2248,1.2953,1.3307,1.2986,1.169,0.0,0.0,0.0,0.0,0.0,0.0,0.0,0.0,0.0,0.0,0.0,0.0,0.0,0.0,0.0,0.0,0.0,0.0,0.0,0.0,0.0,0.0,0.0,0.0,0.0,0.0,0.0,0.0,0.0,0.0,0.0,0.0,0.0,0.0,0.0,0.0,0.0,0.0,0.0,0.0,0.0,0.0,0.0,0.0,0.0,0.0,0.0,0.0,0.0,0.0,0.0,0.0,0.0,0.0,0.0,0.0,0.0,0.0197,0.1729,0.3118,0.4214,0.4214,0.2357,0.0,0.0,0.1347,0.2879,0.2272,0.3004,0.4198,0.4147,0.2262,0.0,0.0,0.0,0.0,0.0,0.0,0.0,0.0,0.0,0.0,0.0,0.0,0.0,0.0,0.0,0.0,0.0,0.0,0.0,0.0,0.0,0.0,0.0,0.0,0.0,0.0,0.0,0.0373,0.1304,0.4209,0.6341,0.7406,0.8434,0.9407,1.0239,1.1316,1.2332,1.3105,1.3336,1.2425,1.0267,0.0,0.0,0.0,0.0,0.0,0.0,0.0,0.0,0.0,0.0,0.0,0.0,0.0,0.0,0.0,0.0,0.0,0.0,0.0,0.0,0.0,0.0,0.0,-0.0124,0.0,0.0,0.0,0.0,0.0,0.0,0.0,0.0,0.0,0.0,0.0,0.0,0.0,0.0,0.0,0.0,0.0,0.0,0.0,0.0,0.0,0.0,0.0,0.0,0.0,0.0,0.0,0.0,0.0,0.0,0.0,0.0,0.0,0.0205,0.0304,0.0303,0.0303,0.0202,0.0101,0.0103,0.395,0.7836,0.2078,0.0102,0.0,0.0,0.0,0.0,0.0,0.0,0.0,0.0,0.0,0.0,0.0,0.0,0.0,0.0,0.0,0.0,0.0,0.0,0.0,0.0,0.0,0.0,0.0,0.0,0.0,0.0,0.0,0.0,0.0,0.0,0.114,0.3887,0.3321,0.4182,0.7396,0.8247,0.8886,0.933,1.0539,1.1214,1.1295,1.1942,1.2044,1.145,0.0,0.0,0.0,0.0,0.0,0.0,0.0,0.0,0.0,0.0,0.0,0.0,0.0,0.0,0.0,0.0,0.0,0.0,0.0,0.0,0.0,0.0,-0.1777,-0.0204,0.0,0.0,0.0,0.0,0.0,0.0,0.0,0.0,0.0,0.0,0.0,0.0,0.0,0.0,0.0,0.0,0.0,0.0,0.0,0.0,0.0,0.0,0.0,0.0,0.0,0.0,0.0,0.0,0.0,0.0,0.0,0.0,0.0426,0.4765,0.6443,0.6432,0.6432,0.5147,0.3247,0.3263,0.4325,0.5812,0.6245,0.3577,0.0,0.0,0.0,0.0,0.0,0.0,0.0,0.0,0.0,0.0,0.0,0.0,0.0,0.0,0.0,0.0,0.0,0.0,0.0,0.0,0.0,0.0,0.0,0.0,0.0,0.0,0.0,0.0,0.0,0.0,0.1918,0.6506,0.6665,0.6898,0.7811,0.7988,0.8457,0.9449,1.0586,1.2158,1.3941,1.3312,1.2665,0.0,0.0,0.0,0.0,0.0,0.0,0.0,0.0,0.0,0.0,0.0,0.0,0.0,0.0,0.0,0.0,0.0,0.0,0.0,0.0,0.0,0.0,-0.3365,-0.2943,-0.0385,0.0,0.0,0.0,0.0,0.0,0.0,0.0,0.0,0.0,0.0,0.0,0.0,0.0,0.0,0.0,0.0,0.0,0.0,0.0,0.0,0.0,0.0,0.0,0.0,0.0,0.0,0.0,0.0,0.0,0.0,0.0,0.0,0.0,0.0,0.0,0.0,0.0,0.7846,0.6348,0.6348,0.6378,0.664,0.8304,0.6542,0.3255,0.0752,0.0,0.0,0.0,0.0,0.0,0.0,0.0,0.0,0.0,0.0,0.0,0.0,0.0,0.0,0.0,0.0,0.0,0.0,0.0,0.0,0.0,0.0,0.0,0.0,0.0,0.0,0.0,0.0,0.2174,0.7513,0.7982,0.0,0.0,0.0,0.8247,0.9736,1.0438,0.0,0.0,0.0,0.0,0.0,0.0,0.0,0.0,0.7728,0.6494,0.0,0.0,0.0,0.0,0.0,0.0,0.0,0.0,0.0,0.0,0.0,0.0,0.0,0.0,0.0,0.0,-0.4103,-0.417,-0.0519,0.0,0.0,0.0,0.0,0.0,0.0,0.0,0.0,0.0,0.0,0.0,0.0,0.0,0.0,0.0,0.0,0.0,0.0,0.0,0.0,0.0,0.0,0.0,0.0,0.0,0.0,0.0,0.0,0.0,0.0,0.0,0.0,0.0,0.0,0.3222,0.8003,0.8642,0.8925,0.8913,0.8913,0.0,0.0,0.8559,0.868,0.7885,0.2578,0.0561,0.0,0.0,0.0,0.0,0.0,0.0,0.0,0.0,0.0,0.0,0.0,0.0,0.0,0.0,0.0,0.0,0.0,0.0,0.0,0.0,0.0,0.0,0.0,0.0,0.0,0.0,0.0,0.0,0.6725,0.7668,0.8001,0.8045,0.7695,0.8314,1.0097,1.0377,1.1717,1.4438,1.4195,1.4771,1.6018,1.4292,1.2818,1.1594,0.8632,0.696,0.0,0.0,0.0,0.0,0.0,0.0,0.0,0.0,0.0,0.0,0.0,0.0,0.0,0.0,0.0,-0.0456,-0.3287,-0.4151,-0.0522,0.0,0.0,0.0,0.0,0.0,0.0,0.0,0.0,0.0,0.0,0.0,0.0,0.0,0.0,0.0,0.0,0.0,0.0,0.0,0.0,0.0,0.0,0.0,0.0,0.0,0.0,0.0,0.0,0.0,0.0,0.0,0.0,0.0,0.0,0.0664,0.2326,0.7103,0.8913,0.8937,0.8937,0.8846,0.8526,0.6158,0.6964,0.8683,0.7541,0.3813,0.0,0.0,0.0,0.0,0.0,0.0,0.0,0.0,0.0,0.0,0.0,0.0,0.0,0.0,0.0,0.0,0.0,0.0,0.0,0.0,0.0,0.0,0.0,0.0,0.0,0.0,0.0,0.0376,0.1503,0.5508,0.8019,0.8048,0.8089,0.877,1.0092,1.1425,1.274,1.4171,1.4118,1.4118,1.4159,1.2646,1.1361,1.0173,0.9511,0.8656,0.0,0.0,0.0,0.0,0.0,0.0,0.0,0.0,0.0,0.0,0.0,0.0,0.0,0.0,0.0,0.0,-0.1534,-0.2099,-0.0265,0.0,0.0,0.0,0.0,0.0,0.0,0.0,-0.11,-0.3836,-0.1515,0.0,0.0,0.0,0.0,0.0,0.0,0.0,0.0,0.0,0.0,0.0,0.0,0.0,0.0,0.0,0.0,0.0,0.0,0.0,0.0,0.0,0.0,0.0,0.0,0.0,0.0335,0.3348,0.6379,0.888,0.888,0.8883,0.866,0.7187,0.5723,0.4487,0.4487,0.2342,0.0,0.0,0.0,0.0,0.0,0.0,0.0,0.0,0.0,0.0,0.0,0.0,0.0,0.0,0.0,0.0,0.0,0.0,0.0,0.0,0.0,0.0,0.0,0.0,0.0,0.0,0.0,0.0,0.0,0.2416,0.5187,0.7856,0.8201,0.8874,1.0163,1.1053,1.2084,1.3421,1.3421,1.3421,1.3529,1.199,1.0962,1.0443,0.9727,0.8916,0.0,0.0,0.0,0.0,0.0,0.0,0.0,0.0,0.2932,0.0914,0.0261,0.0,0.0,0.0,0.0,0.0,0.0,0.0,0.0,0.0,0.0,0.0,0.0,0.0,0.0,0.0,-0.1817,-0.6078,-0.3436,-0.1514,-0.1509,-0.1513,-0.111,-0.0,0.0,0.0,0.0,0.0,0.0,0.0,0.0,0.0,0.0,0.0,0.0,0.0,0.0,0.0,0.0,0.0,0.0,0.0,0.0,0.0,0.0,0.0,0.3018,0.7299,0.8552,0.8903,0.8683,0.7541,0.3926,0.0,0.0,0.0,0.0,0.0,0.0,0.0,0.0,0.0,0.0,0.0,0.0,0.0,0.0,0.0,0.0,0.0,0.0,0.0,0.0,0.0,0.0,0.0,0.0,0.0,0.0,0.0,0.0,0.0,0.0,0.0,0.0,0.0,0.1811,0.6173,0.7527,0.8745,0.9871,1.0032,1.0817,1.2467,1.2467,1.2554,1.2837,1.1433,1.0676,1.0676,0.9407,0.8729,0.8049,0.609,0.4888,0.4495,0.4429,0.4596,0.0,0.0,0.1736,0.2316,0.115,0.0,0.0,0.0,0.0,0.0,0.0,0.0,0.0,0.0,0.0,0.0,0.0,0.0,0.0,0.0,-0.0202,-0.0808,-0.4764,-0.7116,-0.7098,-0.7098,-0.4949,-0.0101,0.0,0.0,0.0,0.0,0.0,0.0,0.0,0.0,0.0,0.0,0.0,0.0,0.0,0.0,0.0,0.0,0.0,0.0,0.0,0.0,0.0,0.0,0.0447,0.1787,0.7081,0.891,0.7997,0.269,0.0561,0.0,0.0,0.0,0.0,0.0,0.0,0.0,0.0,0.0,0.0,0.0,0.0,0.0,0.0,0.0,0.0,0.0,0.0,0.0,0.0,0.0,0.0,0.0,0.0,0.0,0.0,0.0,0.0,0.0,0.0,0.0,0.0,0.0,0.0304,0.0824,0.5354,0.8242,0.8786,0.8991,0.9716,1.1289,1.1289,1.1302,1.1324,0.9915,0.9154,0.9158,0.897,0.8845,0.8557,0.0,0.0,0.0,0.5114,0.5342,0.5661,0.4686,0.3224,0.1507,0.0496,0.0,0.0,0.0,0.0,0.0,0.0,0.0,0.0,0.0,0.0,0.0,0.0,0.0,0.0,-0.2827,-0.4038,-0.2414,-0.4437,-0.5957,-0.6456,-0.7485,-0.6974,-0.4732,-0.1609,0.0,0.0,0.0,0.0,0.0,0.0,0.0,0.0,0.0,0.0,0.0,0.0,0.0,0.0,0.0,0.0,0.0,0.0,0.0,0.0,0.0,0.0,0.0336,0.2802,0.3701,0.3365,0.0785,0.0,0.0,0.0,0.0,0.0,0.0,0.0,0.0,0.0,0.0,0.0,0.0,0.0,0.0,0.0,0.0,0.0,0.0,0.0,0.0,0.0,0.0,0.0,0.0,0.0,0.0,0.0,0.0,0.0,0.0,0.0,0.0,0.0,0.0,0.0,0.0,0.2124,0.4111,0.5884,0.7856,0.9154,0.9827,0.9906,0.9943,0.9943,0.9486,0.9201,0.9101,0.905,0.9063,0.8225,0.0,0.0,0.5684,0.5735,0.6003,0.5989,0.5817,0.4981,0.227,0.0777,0.0,0.0,0.0,0.0,0.0,0.0,0.0,0.0,0.0,0.0,0.0,0.0,0.0,0.0,-0.3525,-0.556,-0.5142,-0.5138,-0.5434,-0.6034,-0.7266,-0.7985,-0.7992,-0.4227,-0.1509,-0.0,0.0,0.0,0.0,0.0,0.0,0.0,0.0,0.0,0.0,0.0,0.0,0.0,0.0,0.0,0.0,0.0,0.0,0.0,0.0,0.0,0.0,0.0,0.0,0.0,0.0,0.0,0.0,0.0,0.0,0.0,0.0,0.0,0.0,0.0,0.0,0.0,0.0,0.0,0.0,0.0,0.0,0.0,0.0,0.0,0.0,0.0,0.0,0.0,0.0,0.0,0.0,0.0,0.0,0.0,0.0,0.0,0.0,0.0,0.0,0.0,0.0,0.0,0.0874,0.2849,0.5216,0.7274,0.886,0.9096,0.9161,0.9154,0.931,0.9282,0.9179,0.9111,0.9032,0.0,0.0,0.5786,0.5786,0.6122,0.6495,0.6582,0.658,0.6525,0.6189,0.283,0.0,0.0,0.0,0.0,0.0,0.0,0.0,0.0,0.0,0.0,0.0,0.0,0.0,0.0,-0.01,-0.2325,-0.7538,-0.7831,-0.7912,-0.7889,-0.7979,-0.7979,-0.7992,-0.7885,-0.5244,-0.0101,0.0,0.0,0.0,0.0,0.0,0.0,0.0,0.0,0.0,0.0,0.0,0.0,0.0,0.0,0.0,0.0,0.0,0.0,0.0,0.0,0.0,0.0,0.0,0.0,0.0,0.0,0.0,0.0,0.0,0.0,0.0,0.0,0.0,0.0,0.0,0.0,0.0,0.0,0.0,0.0,0.0,0.0,0.0,0.0,0.0,0.0,0.0,0.0,0.0,0.0,0.0,0.0,0.0,0.0,0.0,0.0,0.0,0.0,0.0,0.0,0.0,0.0,0.0,0.0112,0.0223,0.3014,0.8749,0.9113,0.9174,0.9154,0.9211,0.9175,0.9182,0.9004,0.8963,0.7142,0.0,0.6,0.6196,0.6519,0.6716,0.6688,0.6837,0.6966,0.6877,0.3218,0.0,0.0,0.0,0.0,0.0,0.0,0.0,0.0,0.0,0.0,0.0,0.0,0.0,0.0,0.0,0.0,-0.5244,-0.6959,-0.7965,-0.7955,-0.7952,-0.7952,-0.7955,-0.6845,-0.5129,-0.2715,-0.0906,0.0,0.0,0.0,0.0,0.0,0.0,0.0,0.0,0.0,0.0,0.0,0.0,0.0,0.0,0.0,0.0,0.0,0.0,0.0,0.0,0.0,0.0,0.0,0.0,0.0,0.0,0.0,0.0,0.0,0.0,0.0,0.0,0.0,0.0,0.0,0.0,0.0,0.0,0.0,0.0,0.0,0.0,0.0,0.0,0.0,0.0,0.0,0.0,0.0,0.0,0.0,0.0,0.0,0.0,0.0,0.0,0.0,0.0,0.0,0.0,0.0,0.0,0.0,0.0,0.0898,0.295,0.6939,0.9159,0.9359,0.9533,0.8503,0.642,0.8456,0.9249,0.6722,0.6353,0.6056,0.6481,0.6635,0.6797,0.6857,0.7051,0.6588,0.4949,0.213,0.0,0.0,0.0,0.0,0.0,0.0,0.0,0.0,-0.1462,-0.2604,-0.2827,-0.2014,-0.1465,0.0,0.0,0.0,-0.5441,-0.7048,-0.7952,-0.7952,-0.8045,-0.8041,-0.7952,-0.6939,-0.6037,-0.5441,-0.181,0.0,0.0,0.0,0.0,0.0,0.0,0.0,0.0,0.0,0.0,0.0,0.0,0.0,0.0,0.0,0.0,0.0,0.0,0.0,0.0,0.0,0.0,0.0,0.0,0.0,0.0,0.0,0.0,0.0,0.0,0.0,0.0,0.0,0.0,0.0,0.0,0.0,0.0,0.0,0.0,0.0,0.0,0.0,0.0,0.0,0.0,0.0,0.0,0.0,0.0,0.0,0.0,0.0,0.0,0.0,0.0,0.0,0.0,0.0,0.0,0.0,0.0,0.0,0.0,0.0,0.0,0.3725,0.6396,0.7698,0.9086,0.8661,0.666,0.6427,0.6066,0.5068,0.5596,0.5784,0.6342,0.6628,0.6766,0.7012,0.6946,0.5486,0.0897,0.0,0.0,0.0,0.0,0.0,0.0,-0.0179,-0.0366,-0.0359,-0.4106,-0.7155,0.0,0.0,0.0,0.0,0.0,0.0,-0.8019,0.0,-0.7972,-0.7972,-0.7952,-0.8048,-0.7972,-0.7972,-0.7982,-0.8009,-0.2715,0.0,0.0,0.0,0.0,0.0,0.0,0.0,0.0,0.0,0.0,0.0,0.0,0.0,0.0,0.0,0.0,0.0,0.0,0.0,0.0,0.0,0.0,0.0,0.0,0.0,0.0,0.0,0.0,0.0,0.0,0.0,0.0,0.0,0.0,0.0,0.0,0.0,0.0,0.0,0.0,0.0,0.0,0.0,0.0,0.0,0.0,0.0,0.0,0.0,0.0,0.0,0.0,0.0,0.0,0.0,0.0,0.0,0.0,0.0,0.0,0.0,0.0,0.0,0.0,0.0,0.0,0.0,0.1419,0.4326,0.7614,0.9442,0.9691,0.3087,0.0,0.1362,0.2615,0.3808,0.3958,0.5486,0.6996,0.7128,0.4353,0.1491,0.0263,0.0,0.0,0.0,0.0,0.0,0.0,-0.2635,0.0,-0.473,-0.4535,0.0,-0.7407,0.0,-0.6966,-0.6994,-0.755,0.0,0.0,-0.7962,-0.8048,-0.8048,-0.8041,-0.8041,-0.8048,-0.8048,-0.7905,-0.7818,-0.2561,0.0,0.0,0.0,0.0,0.0,0.0,0.0,0.0,0.0,0.0,0.0,0.0,0.0,0.0,0.0,0.0,0.0,0.0,0.0,0.0,0.0,0.0,0.0,0.0,0.0,0.0,0.0,0.0,0.0,0.0,0.0,0.0,0.0,0.0,0.0,0.0,0.0,0.0,0.0,0.0,0.0,0.0,0.0,0.0,0.0,0.0,0.0,0.0,0.0,0.0,0.0,0.0,0.0,0.0,0.0,0.0,0.0,0.0,0.0,0.0,0.0,0.0,0.0,0.0,0.0,0.0,0.0,0.0358,0.11,0.2092,0.5067,0.9691,0.3087,0.0,0.0,0.0883,0.1245,-0.0845,-0.0086,0.1479,0.2523,0.137,0.0,0.0,0.0,0.0,0.0,0.0,0.0,0.0,0.0,0.0,-0.6276,-0.5532,-0.5612,0.0,-0.7733,0.0,-0.7942,-0.7962,-0.7959,0.0,-0.8045,-0.8038,-0.8038,-0.7977,-0.797,-0.8038,-0.7916,-0.7751,-0.766,-0.2545,0.0,0.0,0.0,0.0,0.0,0.0,0.0,0.0,0.0,0.0,0.0,0.0,0.0,0.0,0.0,0.0,0.0,0.0,0.0,0.0,0.0,0.0,0.0,0.0,0.0,0.0,0.0,0.0,0.0,0.0,0.0,0.0,0.0,0.0,0.0,0.0,0.0,0.0,0.0,0.0,0.0,0.0,0.0,0.0,0.0,0.0,0.0,0.0,0.0,0.0,0.0,0.0,0.0,0.0,0.0,0.0,0.0,0.0,0.0,0.0,0.0,0.0,0.0,0.0,0.0,0.0,0.0,0.0,0.0,0.0,0.1851,0.544,0.1728,0.0,-0.0402,-0.0405,-0.1395,-0.5565,-0.6502,-0.582,-0.3688,-0.1886,-0.0556,-0.0076,0.0,0.0,0.0,0.0,-0.1399,-0.5682,0.0,-0.6322,-0.6331,-0.6592,-0.6903,-0.735,-0.7506,-0.7716,-0.8011,-0.8038,-0.8038,-0.8038,-0.8021,-0.8011,-0.8011,-0.7906,-0.7896,-0.7908,-0.7729,-0.7577,-0.7579,-0.3127,-0.0597,0.0,0.0,0.0,0.0,0.0,0.0,0.0,0.0,0.0,0.0,0.0,0.0,0.0,0.0,0.0,0.0,0.0,0.0,0.0,0.0,0.0,0.0,0.0,0.0,0.0,0.0,0.0,0.0,0.0,0.0,0.0,0.0,0.0,0.0,0.0,0.0,0.0,0.0,0.0,0.0,0.0,0.0,0.0,0.0,0.0,0.0,0.0,0.0,0.0,0.0,0.0,0.0,0.0,0.0,0.0,0.0,0.0,0.0,0.0,0.0,0.0,0.0,0.0,0.0,0.0,0.0,0.0,0.0,0.0,0.0,0.0,0.0,0.0,-0.2747,-0.2552,-0.2759,-0.3602,-0.5242,-0.6495,-0.5808,-0.5063,0.0,-0.0605,0.0,0.0,0.0,0.0,0.0,-0.6197,0.0,0.0,0.0,0.0,-0.6796,0.0,0.0,0.0,0.0,0.0,0.0,0.0,-0.7923,-0.7851,-0.7851,-0.7963,-0.7882,-0.7781,-0.759,-0.7486,-0.7576,-0.6495,-0.3913,0.0,0.0,0.0,0.0,0.0,0.0,0.0,0.0,0.0,0.0,0.0,0.0,0.0,0.0,0.0,0.0,0.0,0.0,0.0,0.0,0.0,0.0,0.0,0.0,0.0,0.0,0.0,0.0,0.0,0.0,0.0,0.0,0.0,0.0,0.0,0.0,0.0,0.0,0.0,0.0,0.0,0.0,0.0,0.0,0.0,0.0,0.0,0.0,0.0,0.0,0.0,0.0,0.0,0.0,0.0,0.0,0.0,0.0,0.0,0.0,0.0,0.0,0.0,0.0,0.0,0.0,0.0,0.0,0.0,0.0,0.0,0.0,0.0,-0.4857,-0.4742,-0.4795,-0.4932,-0.5684,-0.6401,-0.6232,0.0,0.0,-0.1994,-0.0661,-0.0579,-0.2447,0.0,0.0,0.0,0.0,0.0,0.0,0.0,0.0,0.0,0.0,0.0,0.0,0.0,-0.8038,-0.8038,-0.797,-0.7896,-0.7814,-0.7892,-0.7707,-0.7419,-0.7506,-0.7496,-0.7382,-0.595,-0.3497,0.0,0.0,0.0,0.0,0.0,0.0,0.0,0.0,0.0,0.0,0.0,0.0,0.0,0.0,0.0,0.0,0.0,0.0,0.0,0.0,0.0,0.0,0.0,0.0,0.0,0.0,0.0,0.0,0.0,0.0,0.0,0.0,0.0,0.0,0.0,0.0,0.0,0.0,0.0,0.0,0.0,0.0,0.0,0.0,0.0,0.0,0.0,0.0,0.0,0.0,0.0,0.0,0.0,0.0,0.0,0.0,0.0,0.0,0.0,0.0,0.0,0.0,0.0,0.0,0.0,0.0,0.0,0.0,0.0,0.0,0.0,0.0,0.0,-0.6288,-0.6288,-0.6315,-0.6507,-0.6445,-0.6224,-0.6023,-0.5762,-0.5167,-0.3633,-0.1763,-0.1507,-0.4783,0.0,0.0,0.0,0.0,0.0,0.0,0.0,0.0,0.0,0.0,0.0,0.0,0.0,0.0,-0.8038,-0.798,-0.7808,-0.7724,-0.7627,-0.7443,-0.7155,-0.685,-0.6876,-0.7143,-0.4275,-0.1838,0.0,0.0,0.0,0.0,0.0,0.0,0.0,0.0,0.0,0.0,0.0,0.0,0.0,0.0,0.0,0.0,0.0,0.0,0.0,0.0,0.0,0.0,0.0,0.0,0.0,0.0,0.0,0.0,0.0,0.0,0.0,0.0,0.0,0.0,0.0,0.0,0.0,0.0,0.0,0.0,0.0,0.0,0.0,0.0,0.0,0.0,0.0,0.0,0.0,0.0,0.0,0.0,0.0,0.0,0.0,0.0,0.0,0.0,0.0,0.0,0.0,0.0,0.0,0.0,0.0,0.0,0.0,0.0,0.0,0.0,0.0,0.0,0.0,-0.6264,-0.6264,-0.6268,-0.6359,-0.6352,-0.6186,-0.5888,-0.5603,-0.5384,-0.5209,-0.3475,-0.2723,-0.4955,0.0,0.0,0.0,0.0,-0.6335,0.0,0.0,0.0,0.0,0.0,0.0,0.0,-0.8038,-0.8038,-0.8038,-0.779,-0.76,-0.7437,-0.7247,-0.7165,-0.7099,-0.5072,-0.4992,-0.7066,-0.2641,-0.0193,0.0,0.0,0.0,0.0,0.0,0.0,0.0,0.0,0.0,0.0,0.0,0.0,0.0,0.0,0.0,0.0,0.0,0.0,0.0,0.0,0.0,0.0,0.0,0.0,0.0,0.0,0.0,0.0,0.0,0.0,0.0,0.0,0.0,0.0,0.0,0.0,0.0,0.0,0.0,0.0,0.0,0.0,0.0,0.0,0.0,0.0,0.0,0.0,0.0,0.0,0.0,0.0,0.0,0.0,0.0,0.0,0.0,0.0,0.0,0.0,0.0,0.0,0.0,0.0,0.0,0.0,0.0,0.0,0.0,0.0,0.0,0.0,0.0,-0.6338,-0.6338,-0.6338,-0.6338,-0.6338,-0.6159,-0.5766,-0.5515,-0.5325,-0.5072,-0.3754,-0.3204,-0.491,-0.5304,0.0,0.0,0.0,0.0,0.0,0.0,0.0,0.0,0.0,0.0,0.0,0.0,-0.8038,-0.8038,-0.7845,-0.7661,-0.7624,-0.7382,-0.7235,-0.7148,-0.6333,-0.4881,-0.2822,-0.3801,-0.2811,0.0,0.0,0.0,0.0,0.0,0.0,0.0,0.0,0.0,0.0,0.0,0.0,0.0,0.0,0.0,0.0,0.0,0.0,0.0,0.0,0.0,0.0,0.0,0.0,0.0,0.0,0.0,0.0,0.0,0.0,0.0,0.0,0.0,0.0,0.0,0.0,0.0,0.0,0.0,0.0,0.0,0.0,0.0,0.0,0.0,0.0,0.0,0.0,0.0,0.0,0.0,0.0,0.0,0.0,0.0,0.0,0.0,0.0,0.0,0.0,0.0,0.0,0.0,0.0,0.0,0.0,0.0,0.0,0.0,0.0,0.0,0.0,0.0,-0.6703,-0.6945,-0.7173,-0.7173,-0.7173,-0.7025,-0.6456,-0.61,-0.5603,-0.4845,-0.4023,-0.3758,-0.488,-0.5209,-0.5373,-0.5722,0.0,-0.6098,0.0,0.0,0.0,0.0,0.0,-0.7489,0.0,-0.795,-0.8038,-0.8038,-0.7858,-0.7767,-0.7811,-0.7533,-0.7319,-0.721,-0.6629,-0.4593,-0.1142,-0.3647,-0.3318,0.0,0.0,0.0,0.0,0.0,0.0,0.0,0.0,0.0,0.0,0.0,0.0,0.0,0.0,0.0,0.0,0.0,0.0,0.0,0.0,0.0,0.0,0.0,0.0,0.0,0.0,0.0,0.0,0.0,0.0,0.0,0.0,0.0,0.0,0.0,0.0,0.0,0.0,0.0,0.0,0.0,0.0,0.0,0.0,0.0,0.0,0.0,0.0,0.0,0.0,0.0,0.0,0.0,0.0,0.0,0.0,0.0,0.0,0.0,0.0,0.0,0.0,0.0,0.0,0.0,0.0,0.0,0.0,0.0,0.0,0.0,0.0,0.0,-0.7732,-0.8542,-0.9296,-0.9296,-0.9296,-0.9064,-0.8169,-0.7381,-0.6442,-0.4836,-0.4501,-0.4615,-0.5005,-0.4992,-0.5114,-0.5705,-0.5928,0.0,0.0,0.0,0.0,0.0,0.0,-0.7489,-0.7784,-0.795,-0.8038,-0.8038,-0.7767,-0.7662,-0.7804,-0.7533,-0.7441,-0.7594,-0.5027,-0.3605,-0.3607,-0.1261,-0.0,0.0,0.0,0.0,0.0,0.0,0.0,0.0,0.0,0.0,0.0,0.0,0.0,0.0,0.0,0.0,0.0,0.0,0.0,0.0,0.0,0.0,0.0,0.0,0.0,0.0,0.0,0.0,0.0,0.0,0.0,0.0,0.0,0.0,0.0,0.0,0.0,0.0,0.0,0.0,0.0,0.0,0.0,0.0,0.0,0.0,0.0,0.0,0.0,0.0,0.0,0.0,0.0,0.0,0.0,0.0,0.0,0.0,0.0,0.0,0.0,0.0,0.0,0.0,0.0,0.0,0.0,0.0,0.0,0.0,0.0,0.0,0.0,0.0,-0.7488,-0.8171,-0.8945,-0.8722,-0.8687,-0.8533,-0.8093,-0.7649,-0.7135,-0.6406,-0.5686,-0.5274,-0.5636,-0.5282,-0.5182,-0.5986,-0.6156,0.0,0.0,0.0,0.0,0.0,0.0,-0.7489,0.0,0.0,-0.774,-0.774,-0.7651,-0.7617,-0.7665,-0.7672,-0.776,-0.7834,-0.6951,-0.4685,-0.1165,-0.039,0.0,0.0,0.0,0.0,0.0,0.0,0.0,0.0,0.0,0.0,0.0,0.0,0.0,0.0,0.0,0.0,0.0,0.0,0.0,0.0,0.0,0.0,0.0,0.0,0.0,0.0,0.0,0.0,0.0,0.0,0.0,0.0,0.0,0.0,0.0,0.0,0.0,0.0,0.0,0.0,0.0,0.0,0.0,0.0,0.0,0.0,0.0,0.0,0.0,0.0,0.0,0.0,0.0,0.0,0.0,0.0,0.0,0.0,0.0,0.0,0.0,0.0,0.0,0.0,0.0,0.0,0.0,0.0,0.0,0.0,0.0,0.0,0.0,0.0,-0.7593,-0.847,-0.9362,-0.9491,-0.9528,-0.9377,-0.8924,-0.8419,-0.7907,-0.7413,-0.6564,-0.6027,-0.6294,-0.5711,-0.5502,-0.6226,-0.6138,0.0,0.0,0.0,0.0,0.0,0.0,0.0,0.0,-0.7733,-0.7658,-0.7604,-0.7546,-0.7512,-0.7512,-0.7651,-0.7804,-0.7851,-0.6858,-0.5278,-0.3075,-0.099,0.0,0.0,0.0,0.0,0.0,0.0,0.0,0.0,0.0,0.0,0.0,0.0,0.0,0.0,0.0,0.0,0.0,0.0,0.0,0.0,0.0,0.0,0.0,0.0,0.0,0.0,0.0,0.0,0.0,0.0,0.0,0.0,0.0,0.0,0.0,0.0,0.0,0.0,0.0,0.0,0.0,0.0,0.0,0.0,0.0,0.0,0.0,0.0,0.0,0.0,0.0,0.0,0.0,0.0,0.0,0.0,0.0,0.0,0.0,0.0,0.0,0.0,0.0,0.0,0.0,0.0,0.0,0.0,0.0,0.0,0.0,0.0,0.0,0.0,0.0,-0.9118,-1.0218,-1.1031,-1.1235,-1.1089,-1.0274,-0.9509,0.0,-0.7954,-0.7192,-0.6718,-0.6909,-0.6315,-0.5926,-0.6318,-0.5877,-0.5661,0.0,0.0,0.0,0.0,-0.7604,0.0,-0.7811,-0.7797,-0.7723,-0.7577,-0.7438,-0.7356,-0.7356,-0.7509,-0.7614,-0.7553,-0.523,-0.5135,-0.7406,-0.2828,-0.0606,-0.0606,-0.0202,0.0,0.0,0.0,0.0,0.0,0.0,0.0,0.0,0.0,0.0,0.0,0.0,0.0,0.0,0.0,0.0,0.0,0.0,0.0,0.0,0.0,0.0,0.0,0.0,0.0,0.0,0.0,0.0,0.0,0.0,0.0,0.0,0.0,0.0,0.0,0.0,0.0,0.0,0.0,0.0,0.0,0.0,0.0,0.0,0.0,0.0,0.0,0.0,0.0,0.0,0.0,0.0,0.0,0.0,0.0,0.0,0.0,0.0,0.0,0.0,0.0,0.0,0.0,0.0,0.0,0.0,0.0,0.0,0.0,0.0,0.0,-0.7136,0.0,-0.9286,-0.9273,-0.9656,-1.004,0.0,-0.9491,-0.9097,-0.8896,-0.8082,0.0,0.0,-0.6504,-0.6061,-0.628,-0.6096,-0.6054,-0.6573,0.0,0.0,0.0,-0.7634,-0.7573,-0.795,-0.7675,-0.7411,-0.7261,-0.7214,-0.7193,-0.7193,-0.7451,-0.7614,-0.7553,-0.523,-0.3318,-0.1918,-0.4651,-0.6078,-0.6075,-0.1918,0.0,0.0,0.0,0.0,0.0,0.0,0.0,0.0,0.0,0.0,0.0,0.0,0.0,0.0,0.0,0.0,0.0,0.0,0.0,0.0,0.0,0.0,0.0,0.0,0.0,0.0,0.0,0.0,0.0,0.0,0.0,0.0,0.0,0.0,0.0,0.0,0.0,0.0,0.0,0.0,0.0,0.0,0.0,0.0,0.0,0.0,0.0,0.0,0.0,0.0,0.0,0.0,0.0,0.0,0.0,0.0,0.0,0.0,0.0,0.0,0.0,0.0,0.0,0.0,0.0,0.0,0.0,0.0,0.0,0.0,0.0,-0.6653,-0.8005,-0.9084,-0.8813,-0.9211,-0.9551,-0.9238,-0.8959,-0.8811,-0.8956,-0.859,0.0,0.0,0.0,-0.6612,-0.6867,-0.6393,-0.6152,0.0,0.0,0.0,0.0,-0.7889,-0.7824,-0.7926,-0.7655,-0.7414,-0.7258,-0.7248,-0.7248,-0.7248,-0.7533,-0.762,-0.7561,-0.5253,-0.2715,-0.0,-0.2929,-0.4327,-0.429,-0.3929,-0.2413,0.0,0.0,0.0,0.0,0.0,0.0,0.0,0.0,0.0,0.0,0.0,0.0,0.0,0.0,0.0,0.0,0.0,0.0,0.0,0.0,0.1905,0.3589,0.0785,0.0,0.0,0.0,0.0,0.0,0.0,0.0,0.0,0.0,0.0,0.0,0.0,0.0,0.0,0.0,0.0,0.0,0.0,0.0,0.0,0.0,0.0,0.0,0.0,0.0,0.0,0.0,0.0,0.0,0.0,0.0,0.0,0.0,0.0,0.0,0.0,0.0,0.0,0.0,0.0,0.0,0.0,0.0,0.0,0.0,0.0,0.0,-0.6718,-0.8184,-0.936,-0.8805,-0.9017,-0.9188,-0.8453,0.0,0.0,-0.865,-0.8851,0.0,0.0,-0.8184,0.0,-0.7712,-0.6781,-0.623,-0.697,0.0,0.0,0.0,-0.815,-0.8116,-0.7902,-0.7712,-0.7536,-0.7383,-0.735,-0.7346,-0.737,-0.7631,-0.7711,-0.7579,-0.5268,-0.2703,-0.0,0.0,0.0,-0.0098,-0.4593,-0.4792,-0.1178,-0.0399,0.0,0.0,0.0,0.0,0.0,0.0,0.0,0.0,0.0,0.0,0.0,0.0,0.0,0.0,0.0,0.0,0.0,0.0,0.3475,0.6748,0.258,0.0672,0.0,0.0,0.0,0.0,0.0,0.0,0.0,0.0,0.0,0.0,0.0,0.0,0.0,0.0,0.0,0.0,0.0,0.0,0.0,0.0,0.0,0.0,0.0,0.0,0.0,0.0,0.0,0.0,0.0,0.0,0.0,0.0,0.0,0.0,0.0,0.0,0.0,0.0,0.0,0.0,0.0,0.0,0.0,0.0,0.0,0.0,-0.8137,-0.9302,-0.9874,-0.7545,-0.7879,-0.8428,-0.7165,0.0,0.0,0.0,0.0,0.0,0.0,-0.8708,-0.7979,0.0,0.0,-0.6759,0.0,0.0,-0.7665,-0.8174,0.0,-0.7963,-0.8177,-0.7838,-0.7536,-0.7383,-0.7251,-0.7234,-0.7363,-0.7536,-0.761,-0.7576,-0.5305,-0.2752,-0.0,0.0,0.0,-0.0,-0.087,-0.3199,-0.6603,-0.2067,0.0,0.0,0.0,0.0,0.0,0.0,0.0,0.0,0.0,0.0,0.0,0.0,0.0,0.0,0.0,0.0,0.0,0.0,0.0673,0.213,0.631,0.4044,0.0,0.0,0.0,0.0,0.0,0.0,0.0,0.0,0.0,0.0,0.0,0.0,0.0,0.0,0.0,0.0,0.0,0.0,0.0,0.0,0.0,0.0,0.0,0.0,0.0,0.0,0.0,0.0,0.0,0.0,0.0,0.0,0.0,0.0,0.0,0.0,0.0,0.0,0.0,0.0,0.0,0.0,0.0,0.0,0.0,0.0,-0.8515,-0.9512,-0.9903,-0.8115,-0.8612,-0.9192,0.0,0.0,0.0,0.0,0.0,0.0,0.0,0.0,0.0,0.0,0.0,-0.7014,-0.7265,-0.7621,-0.796,0.0,-0.8214,-0.8167,-0.8147,-0.7882,-0.7685,-0.7614,-0.7543,-0.7533,-0.7604,-0.7753,-0.7851,-0.7781,-0.534,-0.2753,-0.0,0.0,0.0,0.0,0.0,-0.1245,-0.3578,-0.1172,0.0,0.0,0.0,0.0,0.0,0.0,0.0,0.0,0.0,0.0,0.0,0.0,0.0,0.0,0.0,0.0,0.0,0.0,0.0,0.112,0.7107,0.6987,0.4151,0.0897,0.0,0.0,0.0,0.0,0.0,0.0,0.0,0.0,0.0,0.0,0.0,0.0,0.0,0.0,0.0,0.0,0.0,0.0,0.0,0.0,0.0,0.0,0.0,0.0,0.0,0.0,0.0,0.0,0.0,0.0,0.0,0.0,0.0,0.0,0.0,0.0,0.0,0.0,0.0,0.0,0.0,0.0,0.0,0.0,-0.8889,-0.9374,-0.9573,-0.895,-0.9502,0.0,0.0,0.0,0.0,0.0,0.0,0.0,0.0,0.0,0.0,0.0,-0.6858,-0.7136,-0.759,-0.7919,-0.814,-0.8208,-0.8313,-0.8289,-0.8062,-0.7899,-0.7811,-0.7811,-0.778,-0.7777,-0.7811,-0.7923,-0.797,-0.8034,-0.5351,-0.2739,-0.0,0.0,0.0,0.0,0.0,0.0,0.0,0.0,0.0,0.0,0.0,0.0,0.0,0.0,0.0,0.0,0.0,0.0,0.0,0.0,0.0,0.0,0.0,0.0,0.0,0.0,0.0,0.0895,0.54,0.7785,0.7662,0.1682,0.0,0.0,0.0,0.0,0.0,0.0,0.0,0.0,0.0,0.0,0.0,0.0,0.0,0.0,0.0,0.0,0.0,0.0,0.0,0.0,0.0,0.0,0.0,0.0,0.0,0.0,0.0,0.0,0.0,0.0,0.0,0.0,0.0,0.0,0.0,0.0,0.0,0.0,0.0,0.0,0.0,0.0,0.0,0.0,-0.9741,-0.9254,-0.8675,-0.9314,-0.9498,0.0,-0.8869,-0.8493,0.0,-0.8944,0.0,0.0,0.0,0.0,0.0,-0.6902,-0.6939,-0.7139,-0.7183,-0.7451,-0.775,-0.8024,-0.8065,-0.8062,-0.8041,-0.7899,-0.7811,-0.7811,-0.7689,-0.7672,-0.7804,-0.7821,-0.7902,-0.7969,-0.5446,-0.2668,-0.0,0.0,0.0,0.0,0.0,0.0,0.0,0.0,0.0,0.0,0.0,0.0,0.0,0.0,0.0,0.0,0.0,0.0,0.0,0.0,0.0,0.0,0.0,0.0,0.0,0.0,0.0,0.0112,0.0561,0.4496,0.7679,0.1683,0.0,0.0,0.0,0.0,0.0,0.0,0.0,0.0,0.0,0.0,0.0,0.0,0.0,0.0,0.0,0.0,0.0,0.0,0.0,0.0,0.0,0.0,0.0,0.0,0.0,0.0,0.0,0.0,0.0,0.0,0.0,0.0,0.0,0.0,0.0,0.0,0.0,0.0,0.0,0.0,0.0,0.0,0.0,0.0,-0.8639,-0.8247,-0.78,-0.828,-0.8585,0.0,0.0,-1.0042,-1.0002,-0.9848,-0.9018,0.0,0.0,0.0,-0.725,-0.6915,-0.6936,-0.7105,-0.7387,-0.7604,-0.7807,-0.8014,-0.7957,-0.7896,-0.7896,-0.7767,-0.7678,-0.7678,-0.7712,-0.7753,-0.7807,-0.7899,-0.7906,-0.7801,-0.5331,-0.2756,-0.0,0.0,0.0,0.0,0.0,0.0,0.0,0.0,0.0,0.0,0.0,0.0,0.0,0.0,0.0,0.0,0.0,0.0,0.0,0.0,0.0,0.0,0.0,0.0,0.0,0.0,0.0,0.0,0.0,0.157,0.2919,0.0673,0.0,0.0,0.0,0.0,0.0,0.0,0.0,0.0,0.0,0.0,0.0,0.0,0.0,0.0,0.0,0.0,0.0,0.0,0.0,0.0,0.0,0.0,0.0,0.0,0.0,0.0,0.0,0.0,0.0,0.0,0.0,0.0,0.0,0.0,0.0,0.0,0.0,0.0,0.0,0.0,0.0,0.0,0.0,0.0,-0.7677,-0.7281,-0.7054,0.0,0.0,0.0,-1.057,-1.0804,-1.0622,-1.0357,-0.9275,0.0,0.0,0.0,0.0,0.0,-0.6976,-0.7177,-0.7485,-0.7692,-0.7868,-0.8021,-0.7946,-0.7865,-0.7818,-0.7723,-0.7648,-0.7604,-0.7689,-0.7743,-0.7743,-0.7845,-0.7821,-0.783,-0.604,-0.3485,-0.0,0.0,0.0,0.0,0.0,0.0,0.0,0.0,0.0,0.0,0.0,0.0,0.0,0.0,0.0,0.0,0.0,0.0,0.0,0.0,0.0,0.0,0.0,0.0,0.0,0.0,0.0,0.0,0.0,0.0,0.0,0.0,0.0,0.0,0.0,0.0,0.0,0.0,0.0,0.0,0.0,0.0,0.0,0.0,0.0,0.0,0.0,0.0,0.0,0.0,0.0,0.0,0.0,0.0,0.0,0.0,0.0,0.0,0.0,0.0,0.0,0.0,0.0,0.0,0.0,0.0,0.0,0.0,0.0,0.0,0.0,0.0,0.0,0.0,0.0,0.0,-0.7225,-0.666,-0.6322,0.0,0.0,0.0,-1.0847,-1.0406,-0.9662,-1.0264,0.0,-0.8377,-0.6796,-0.6837,0.0,-0.6749,-0.7078,-0.737,-0.737,-0.7624,-0.7865,-0.8021,-0.8035,-0.7974,-0.7824,-0.7807,-0.7746,-0.7607,-0.7597,-0.7597,-0.7597,-0.76,-0.7712,-0.7942,-0.7695,-0.5179,-0.0092,-0.0,0.0,0.0,0.0,0.0,0.0,0.0,0.0,0.0,0.0,0.0,0.0,0.0,0.0,0.0,0.0,0.0,0.0,0.0,0.0,0.0,0.0,0.0,0.0,0.0,0.0,0.0,0.0,0.0,0.0,0.0,0.0,0.0,0.0,0.0,0.0,0.0,0.0,0.0,0.0,0.0,0.0,0.0,0.0,0.0,0.0,0.0,0.0,0.0,0.0,0.0,0.0,0.0,0.0,0.0,0.0,0.0,0.0,0.0,0.0,0.0,0.0,0.0,0.0,0.0,0.0,0.0,0.0,0.0,0.0,0.0,0.0,0.0,0.0,0.0,-0.6078,-0.562,0.0,0.0,0.0,0.0,0.0,-0.8921,0.0,0.0,-0.8312,-0.7307,-0.6616,-0.6668,-0.6837,-0.6858,-0.7149,-0.737,-0.737,-0.755,-0.7733,-0.7784,-0.7924,-0.8019,-0.7988,-0.7591,-0.7255,-0.7212,-0.7387,-0.7441,-0.7441,-0.755,-0.7667,-0.7578,-0.7745,-0.6929,-0.4994,-0.1712,0.0,0.0,0.0,0.0,0.0,0.0,0.0,0.0,0.0,0.0,0.0,0.0,0.0,0.0,0.0,0.0,0.0,0.0,0.0,0.0,0.0,0.0,0.0,0.0,0.0,0.0,0.0,0.0,0.0,0.0,0.0,0.0,0.0,0.0,0.0,0.0,0.0,0.0,0.0,0.0,0.0,0.0,0.0,0.0,0.0,0.0,0.0,0.0,0.0,0.0,0.0,0.0,0.0,0.0,0.0,0.0,0.0,0.0,0.0,0.0,0.0,0.0,0.0,0.0,0.0,0.0,0.0,0.0,0.0,0.0,0.0,0.0,0.0,0.0,-0.5549,-0.5479,0.0,0.0,0.0,0.0,0.0,0.0,0.0,0.0,0.0,-0.7235,-0.6524,-0.6705,-0.6959,-0.6932,-0.7285,-0.7653,-0.756,-0.76,-0.7295,-0.6349,-0.6297,-0.638,-0.6406,-0.6076,-0.6236,-0.7005,-0.7255,-0.7299,-0.7299,-0.7394,-0.7414,-0.7245,-0.7542,-0.6581,-0.4318,-0.1438,0.0,0.0,0.0,0.0,0.0,0.0,0.0,0.0,0.0,0.0,0.0,0.0,0.0,0.0,0.0,0.0,0.0,0.0,0.0,0.0,0.0,0.0,0.0,0.0,0.0,0.0,0.0,0.0,0.0,0.0,0.0,0.0,0.0,0.0,0.0,0.0,0.0,0.0,0.0,0.0,0.0,0.0,0.0,0.0,0.0,0.0,0.0,0.0,0.0,0.0,0.0,0.0,0.0,0.0,0.0,0.0,0.0,0.0,0.0,0.0,0.0,0.0,0.0,0.0,0.0,0.0,0.0,0.0,0.0,0.0,0.0,0.0,0.0,0.0,-0.5487,0.0,0.0,0.0,0.0,0.0,0.0,0.0,-0.8112,-0.8225,0.0,-0.7874,-0.656,-0.6868,-0.7261,-0.6907,-0.7458,-0.7838,-0.7411,-0.7413,-0.6709,-0.4568,-0.392,-0.366,-0.36,-0.3679,-0.4379,-0.6293,-0.6646,-0.6739,-0.6739,-0.7012,-0.7115,-0.7135,-0.6678,-0.4593,-0.0811,-0.027,0.0,0.0,0.0,0.0,0.0,0.0,0.0,0.0,0.0,0.0,0.0,0.0,0.0,0.0,0.0,0.0,0.0,0.0,0.0,0.0,0.0,0.0,0.0,0.0,0.0,0.0,0.0,0.0,0.0,0.0,0.0,0.0,0.0,0.0,0.0,0.0,0.0,0.0,0.0,0.0,0.0,0.0,0.0,0.0,0.0,0.0,0.0,0.0,0.0,0.0,0.0,0.0,0.0,0.0,0.0,0.0,0.0,0.0,0.0,0.0,0.0,0.0,0.0,0.0,0.0,0.0,0.0,0.0,0.0,0.0,0.0,0.0,0.0,0.0,-0.5097,-0.5777,0.0,0.0,0.0,0.0,0.0,-0.6767,-0.695,-0.7154,-0.7094,-0.6816,-0.6517,-0.6844,-0.7084,-0.6858,-0.734,-0.6978,-0.4782,-0.6078,-0.7034,-0.6491,-0.3132,-0.0822,-0.0831,-0.0818,-0.1078,-0.152,-0.3306,-0.4378,-0.4378,-0.6112,-0.7131,-0.7135,-0.3506,-0.308,-0.6285,-0.2115,0.0,0.0,0.0,0.0,0.0,0.0,0.0,0.0,0.0,0.0,0.0,0.0,0.0,0.0,0.0,0.0,0.0,0.0,0.0,0.0,0.0,0.0,0.0,0.0,0.0,0.0,0.0,0.0,0.0,0.0,0.0,0.0,0.0,0.0,0.0,0.0,0.0,0.0,0.0,0.0,0.0,0.0,0.0,0.0,0.0,0.0,0.0,0.0,0.0,0.0,0.0,0.0,0.0,0.0,0.0,0.0,0.0,0.0,0.0,0.0,0.0,0.0,0.0,0.0,0.0,0.0,0.0,0.0,0.0,0.0,0.0,0.0,0.0,0.0,-0.5225,0.0,0.0,0.0,0.0,0.0,-0.673,-0.6583,-0.6539,-0.677,-0.6634,-0.6495,-0.6569,-0.6888,-0.7104,-0.708,-0.6392,-0.5853,-0.5704,-0.4563,-0.3678,-0.3713,-0.1498,0.0,0.0,0.0,0.0,0.0,-0.118,-0.1906,-0.1906,-0.3032,-0.3684,-0.3737,-0.1275,-0.2566,-0.7944,-0.5203,-0.2538,0.0,0.0,0.0,0.0,0.0,0.0,0.0,0.0,0.0,0.0,0.0,0.0,0.0,0.0,0.0,0.0,0.0,0.0,0.0,0.0,0.0,0.0,0.0,0.0,0.0,0.0,0.0,0.0,0.0,0.0,0.0,0.0,0.0,0.0,0.0,0.0,0.0,0.0,0.0,0.0,0.0,0.0,0.0,0.0,0.0,0.0,0.0,0.0,0.0,0.0,0.0,0.0,0.0,0.0,0.0,0.0,0.0,0.0,0.0,0.0,0.0,0.0,0.0,0.0,0.0,0.0,0.0,0.0,0.0,0.0,0.0,0.0,0.0,-0.5304,0.0,-0.603,0.0,0.0,0.0,-0.6826,-0.6624,-0.658,-0.6678,-0.6559,-0.6488,-0.6668,-0.6922,-0.7128,-0.7376,-0.5898,-0.5127,-0.6437,-0.2835,0.0,0.0,0.0,0.0,0.0,0.0,0.0,0.0,0.0,0.0,0.0,0.0,0.0,0.0,0.0,-0.2143,-0.659,-0.7553,-0.5746,-0.1381,-0.0395,0.0,0.0,0.0,0.0,0.0,0.0,0.0,0.0,0.0,0.0,0.0,0.0,0.0,0.0,0.0,0.0,0.0,0.0,0.0,0.0,0.0,0.0,0.0,0.0,0.0,0.0,0.0,0.0,0.0,0.0,0.0,0.0,0.0,0.0,0.0,0.0,0.0,0.0,0.0,0.0,0.0,0.0,0.0,0.0,0.0,0.0,0.0,0.0,0.0,0.0,0.0,0.0,0.0,0.0,0.0,0.0,0.0,0.0,0.0,0.0,0.0,0.0,0.0,0.0,0.0,0.0,0.0,0.0,0.0,0.0,0.0,0.0,0.0,0.0,0.0,0.0,0.0,0.0,0.0,-0.6834,0.0,-0.6481,-0.6373,-0.6651,-0.6763,-0.7031,-0.748,-0.7491,-0.6007,-0.1674,-0.049,0.0,0.0,0.0,0.0,0.0,0.0,0.0,0.0,0.0,0.0,0.0,0.0,0.0,0.0,0.0,-0.0382,-0.1068,-0.5672,-0.7648,-0.6868,-0.2213,0.0,0.0,0.0,0.0,0.0,0.0,0.0,0.0,0.0,0.0,0.0,0.0,0.0,0.0,0.0,0.0,0.0,0.0,0.0,0.0,0.0,0.0,0.0,0.0,0.0,0.0,0.0,0.0,0.0,0.0,0.0,0.0,0.0,0.0,0.0,0.0,0.0,0.0,0.0,0.0,0.0,0.0,0.0,0.0,0.0,0.0,0.0,0.0,0.0,0.0,0.0,0.0,0.0,0.0,0.0,0.0,0.0,0.0,0.0,0.0,0.0,0.0,0.0,0.0,0.0,0.0,0.0,0.0,0.0,0.0,0.0,-0.4869,0.0,0.0,0.0,0.0,0.0,-0.7784,0.0,-0.6909,-0.6844,-0.6658,-0.6576,-0.6713,-0.6708,-0.6962,-0.7712,-0.7887,-0.6155,-0.0796,0.0,0.0,0.0,0.0,0.0,0.0,0.0,0.0,0.0,0.0,0.0,0.0,0.0,0.0,0.0,0.0,0.0,0.0,-0.2357,-0.3474,-0.3536,-0.1111,0.0,0.0,0.0,0.0,0.0,0.0,0.0,0.0,0.0,0.0,0.0,0.0,0.0,0.0,0.0,0.0,0.0,0.0,0.0,0.0,0.0,0.0,0.0,0.0,0.0,0.0,0.0,0.0,0.0,0.0,0.0,0.0,0.0,0.0,0.0,0.0,0.0,0.0,0.0,0.0,0.0,0.0,0.0,0.0,0.0,0.0,0.0,0.0,0.0,0.0,0.0,0.3027,0.4938,0.4938,0.1903,0.0,0.0,0.0,0.0,0.0,0.0,0.0,0.0,0.0,0.0,0.0,0.0,0.0,0.0,0.0,0.0,0.0,0.0,0.0,0.0,0.0,0.0,0.0,0.0,-0.7314,-0.6936,-0.6871,-0.6837,-0.68,-0.6225,-0.6253,-0.7567,-0.6795,-0.4608,-0.0595,0.0,0.0,0.0,0.0,0.0,0.0,0.0,0.0,0.0,0.0,0.0,0.0,0.0,0.0,0.0,0.0,0.0,0.0,0.0,0.0,0.0,0.0,0.0,0.0,0.0,0.0,0.0,0.0,0.0,0.0,0.0,0.0,0.0,0.0,0.0,0.0,0.0,0.0,0.0,0.0,0.0,0.0,0.0,0.0,0.0,0.0,0.0,0.0,0.0,0.0,0.0,0.0,0.0,0.0,0.0,0.0,0.0,0.0,0.0,0.0,0.0,0.0,0.0,0.0,0.0,0.0,0.0,0.0,0.0,0.0,0.0,0.0,0.0,0.4038,0.7203,0.8798,0.4817,0.1564,0.0112,0.0,0.0,0.0,0.0,0.0,0.0,0.0,0.0,0.0,0.0,0.0,0.0,0.0,0.0,0.0,0.0,0.0,0.0,0.0,0.0,0.0,0.0,-0.8396,-0.7125,-0.696,-0.6984,-0.6726,-0.4799,-0.4116,-0.6684,-0.3391,-0.028,-0.0,0.0,0.0,0.0,0.0,0.0,0.0,0.0,0.0,0.0,0.0,0.0,0.0,0.0,0.0,0.0,0.0,0.0,0.0,0.0,0.0,0.0,0.0,0.0,0.0,0.0,0.0,0.0,0.0,0.0,0.0,0.0,0.0,0.0,0.0,0.0,0.0,0.0,0.0,0.0,0.0,0.0,0.0,0.0,0.0,0.0,0.0,0.0,0.0,0.0,0.0,0.0,0.0,0.0,0.0,0.0,0.0,0.0,0.0,0.0,0.0,0.0,0.0,0.0,0.0,0.0,0.0,0.0,0.0,0.0,0.0,0.0,0.0,0.0,0.0224,0.2802,0.8453,0.8568,0.6061,0.0335,0.0,0.0,0.0,0.0,0.0,0.0,0.0,0.0,0.0,0.0,0.0,0.0,0.0,0.0,0.0,0.0,0.0,0.0,0.0,-0.9382,-0.9433,-0.9167,-0.8786,-0.8289,-0.772,-0.7244,-0.697,-0.3782,-0.1412,-0.2378,-0.1151,0.0,0.0,0.0,0.0,0.0,0.0,0.0,0.0,0.0,0.0,0.0,0.0,0.0,0.0,0.0,0.0,0.0,0.0,0.0,0.0,0.0,0.0,0.0,0.0,0.0,0.0,0.0,0.0,0.0,0.0,0.0,0.0,0.0,0.0,0.0,0.0,0.0,0.0,0.0,0.0,0.0,0.0,0.0,0.0,0.0,0.0,0.0,0.0,0.0,0.0,0.0,0.0,0.0,0.0,0.0,0.0,0.0,0.0,0.0,0.0,0.0,0.0,0.0,0.0,0.0,0.0,0.0,0.0,0.0,0.0,0.0,0.0,0.0,0.0,0.0,0.0,0.1677,0.5714,0.7765,0.7985,0.5813,0.5712,0.4817,0.3019,0.2908,0.2013,0.0,0.0,0.0,0.0,0.0,0.0,0.0,0.0,0.0,0.0,0.0,0.0,0.0,0.0,-0.9001,-0.9855,-0.9606,-0.8999,-0.8404,-0.815,-0.7865,-0.7382,-0.4559,-0.1771,-0.0259,0.0,0.0,0.0,0.0,0.0,0.0,0.0,0.0,0.0,0.0,0.0,0.0,0.0,0.0,0.0,0.0,0.0,0.0,0.0,0.0,0.0,0.0,0.0,0.0,0.0,0.0,0.0,0.0,0.0,0.0,0.0,0.0,0.0,0.0,0.0,0.0,0.0,0.0,0.0,0.0,0.0,0.0,0.0,0.0,0.0,0.0,0.0,0.0,0.0,0.0,0.0,0.0,0.0,0.0,0.0,0.0,0.0,0.0,0.0,0.0,0.0,0.0,0.0,0.0,0.0,0.0,0.0,0.0,0.0,0.0,0.0,0.0,0.0,0.0,0.0,0.0,0.0,0.1229,0.4247,0.7187,0.8664,0.7949,0.8539,0.7979,0.6049,0.5935,0.5035,0.3017,0.2011,0.1012,0.0,0.0,0.0,0.0,0.0,0.0,0.0,0.0,0.0,0.0,0.0,0.0,-0.9751,0.0,-0.9179,-0.7508,-0.8116,-0.8731,-0.783,-0.718,-0.5385,-0.0928,-0.0086,0.0,0.0,0.0,0.0,0.0,0.0,0.0,0.0,0.0,0.0,0.0,0.0,0.0,0.0,0.0,0.0,0.0,0.0,0.0,0.0,0.0,0.0,0.0,0.0,0.0,0.0,0.0,0.0,0.0,0.0,0.0,0.0,0.0,0.0,0.0,0.0,0.0,0.0,0.0,0.0,0.0,0.0,0.0,0.0,0.0,0.0,0.0,0.0,0.0,0.0,0.0,0.0,0.0,0.0,0.0,0.0,0.0,0.0,0.0,0.0,0.0,0.0,0.0,0.0,0.0,0.0,0.0,0.0,0.0,0.0,0.0,0.0,0.0,0.0,0.0,0.0,0.1232,0.4247,0.7182,0.8084,0.6251,0.7835,0.8873,0.8893,0.8893,0.8893,0.8893,0.6047,0.3239,0.0223,0.0112,0.0,0.0,0.0,0.0,-0.3316,0.0,0.0,0.0,0.0,0.0,0.0,0.0,-0.7845,-0.786,-0.7506,-0.7224,-0.7278,-0.7348,-0.6882,-0.5117,-0.2129,0.0,0.0,0.0,0.0,0.0,0.0,0.0,0.0,0.0,0.0,0.0,0.0,0.0,0.0,0.0,0.0,0.0,0.0,0.0,0.0,0.0,0.0,0.0,0.0,0.0,0.0,0.0,0.0,0.0,0.0,0.0,0.0,0.0,0.0,0.0,0.0,0.0,0.0,0.0,0.0,0.0,0.0,0.0,0.0,0.0,0.0,0.0,0.0,0.0,0.0,0.0,0.0,0.0,0.0,0.0,0.0,0.0,0.0,0.0,0.0,0.0,0.0,0.0,0.0,0.0,0.0,0.0,0.0,0.0,0.0,0.0,0.0,0.0,0.0,0.0,0.0,0.1232,0.4247,0.7187,0.8664,0.8177,0.8631,0.8866,0.887,0.8856,0.8856,0.887,0.8072,0.7282,0.6391,0.2124,0.0,0.0,0.0,0.0,0.0,0.0,0.0,0.0,0.0,0.0,0.0,-0.706,-0.719,-0.768,-0.7628,-0.7517,-0.7276,-0.7361,-0.7337,-0.7001,-0.4136,-0.1448,-0.0173,0.0,0.0,0.0,0.0,0.0,0.0,0.0,0.0,0.0,0.0,0.0,0.0,0.0,0.0,0.0,0.0,0.0,0.0,0.0,0.0,0.0,0.0,0.0,0.0,0.0,0.0,0.0,0.0,0.0,0.0,0.0,0.0,0.0,0.0,0.0,0.0,0.0,0.0,0.0,0.0,0.0,0.0,0.0,0.0,0.0,0.0,0.0,0.0,0.0,0.0,0.0,0.0,0.0,0.0,0.0,0.0,0.0,0.0,0.0,0.0,0.0,0.0,0.0,0.0,0.0,0.0,0.0,0.0,0.0,0.0,0.0,0.0,0.0,0.0,0.1232,0.4247,0.7187,0.8893,0.8863,0.8863,0.8863,0.8863,0.885,0.885,0.8863,0.8863,0.8876,0.8903,0.2907,0.0,0.0,0.0,0.0,0.0,0.0,0.0,0.0,0.0,0.0,0.0,-0.6899,-0.6823,-0.6805,-0.7807,-0.8273,-0.7333,-0.7075,-0.7,-0.7205,-0.5907,-0.3646,-0.0446,0.0,0.0,0.0,0.0,0.0,0.0,0.0,0.0,0.0,0.0,0.0,0.0,0.0,0.0,0.0,0.0,0.0,0.0,0.0,0.0,0.0,0.0,0.0,0.0,0.0,0.0,0.0,0.0,0.0,0.0,0.0,0.0,0.0,0.0,0.0,0.0,0.0,0.0,0.0,0.0,0.0,0.0,0.0,0.0,0.0,0.0,0.0,0.0,0.0,0.0,0.0,0.0,0.0,0.0112,0.0785,0.1009,0.0897,0.056,0.0224,0.0,0.0,0.0,0.0,0.0,0.0,0.0,0.0,0.0,0.0,0.0,0.0,0.0,0.0,0.0,0.1232,0.4247,0.7182,0.8886,0.8863,0.8863,0.8863,0.8866,0.8866,0.8866,0.8866,0.8523,0.8536,0.8907,0.2907,0.0,0.0,0.0,0.0,0.0,0.0,0.0,0.0,0.0,0.0,0.0,-0.4667,-0.4823,0.0,-0.528,-0.5535,-0.5895,-0.6006,-0.6149,-0.6482,-0.6561,-0.5022,-0.0609,0.0,0.0,0.0,0.0,0.0,0.0,0.0,0.0,0.0,0.0,0.0,0.0,0.0,0.0,0.0,0.0,0.0,0.0,0.0,0.0,0.0,0.0,0.0,0.0,0.0,0.0,0.0,0.0,0.0,0.0,0.0,0.0,0.0,0.0,0.0,0.0,0.0,0.0,0.0,0.0,0.0,0.0,0.0,0.0,0.0,0.0,0.0,0.0,0.0,0.0,0.0,0.0,0.0,0.1233,0.6067,0.7201,0.6517,0.4139,0.1694,0.0,0.0,0.0,0.0,0.0,0.0,0.0,0.0,0.0,0.0,0.0,0.0,0.0,0.0,0.0,0.1232,0.4247,0.7182,0.8886,0.8863,0.8863,0.887,0.889,0.889,0.889,0.889,0.6609,0.6492,0.8873,0.2903,0.0,0.0,0.0,0.0,0.0,0.0,0.0,-0.4372,0.0,0.0,0.0,0.0,-0.4524,-0.5121,-0.5067,-0.5074,-0.5599,-0.5694,-0.5796,-0.6025,-0.65,-0.5918,-0.3489,-0.1288,0.0,0.0,0.0,0.0,0.0,0.0,0.0,0.0,0.0,0.0,0.0,0.0,0.0,0.0,0.0,0.0,0.0,0.0,0.0,0.0,0.0,0.0,0.0,0.0,0.0,0.0,0.0,0.0,0.0,0.0,0.0,0.0,0.0,0.0,0.0,0.0,0.1716,0.394,0.394,0.3127,0.2013,0.2013,0.1108,0.0506,0.351,0.4473,0.4173,0.2674,0.2238,0.2238,0.2238,0.2238,0.3021,0.5944,0.7871,0.8444,0.7067,0.5527,0.3529,0.0578,0.0,0.0,0.0,0.0,0.1019,0.4044,0.4487,0.3362,0.0336,0.0,0.0,0.0,0.0,0.1232,0.4247,0.7182,0.8886,0.8863,0.8873,0.8883,0.8897,0.89,0.89,0.8897,0.741,0.7407,0.8886,0.587,0.2955,0.0,0.0,0.0,0.0,0.0,0.0,0.0,0.0,-0.4472,0.0,0.0,0.0,0.0,0.0,0.0,0.0,-0.5345,-0.5325,-0.544,-0.5881,-0.6204,-0.603,-0.3127,-0.0859,-0.052,-0.0619,-0.0716,-0.071,-0.044,-0.0265,-0.0,0.0,0.0,0.0,0.0,0.0,0.0,0.0,0.0,0.0,0.0,0.0,0.0,0.0,0.0,0.0,0.0,0.0,0.0,0.0,0.0,0.0,0.0,0.0,0.0,0.0,0.0606,0.1515,0.1515,0.3939,0.7296,0.7811,0.6567,0.4724,0.4724,0.3021,0.1729,0.6558,0.8432,0.8412,0.6044,0.5371,0.5371,0.5371,0.5371,0.5369,0.5367,0.7176,0.8886,0.8883,0.8913,0.7365,0.2169,0.0567,0.0,0.0,0.0,0.205,0.8015,0.8913,0.7195,0.2347,0.067,0.0,0.0,0.0,0.1008,0.3463,0.6842,0.8886,0.8863,0.8883,0.8664,0.8094,0.7536,0.7195,0.7184,0.8329,0.8907,0.891,0.8904,0.579,0.0,0.0,0.0,0.0,0.0,0.0,0.0,-0.5164,0.0,0.0,0.0,0.0,-0.3894,0.0,0.0,0.0,0.0,0.0,0.0,-0.4819,-0.5226,-0.507,-0.4781,-0.3958,-0.2527,-0.2866,-0.3169,-0.3222,-0.22,-0.1162,-0.0092,0.0,0.0,0.0,0.0,0.0,0.0,0.0,0.0,0.0,0.0,0.0,0.0,0.0,0.0,0.0,0.0,0.0,0.0,0.0,0.0,0.0,0.0,0.0,0.0,0.0,0.2929,0.7098,0.7098,0.5959,0.4826,0.7172,0.7785,0.7578,0.7578,0.5908,0.4135,0.4752,0.6805,0.8838,0.8513,0.8434,0.8434,0.8434,0.8434,0.8431,0.8412,0.8638,0.886,0.895,0.8947,0.824,0.5823,0.2396,0.0,0.0,0.0,0.2022,0.8,0.8913,0.8683,0.7994,0.3244,0.0,0.0,0.0,0.0112,0.0447,0.5712,0.8886,0.8863,0.8883,0.775,0.5144,0.2463,0.1008,0.1005,0.6186,0.8927,0.8897,0.894,0.5864,0.0,0.0,0.0,0.0,0.0,0.0,0.0,0.0,0.0,-0.3933,0.0,-0.3856,0.0,0.0,0.0,0.0,0.0,0.0,0.0,-0.4501,-0.4792,-0.4505,0.0,-0.5155,-0.4851,0.0,0.0,-0.5785,-0.346,-0.2135,-0.3022,-0.2589,-0.1633,-0.0094,0.0,0.0,0.0,0.0,0.0,0.0,0.0,0.0,0.0,0.0,0.0,0.0,0.0,0.0,0.0,0.0,0.0,0.0,0.0,0.0,0.0,0.0,0.3232,0.8026,0.8026,0.7284,0.6442,0.7569,0.7972,0.7962,0.7975,0.7406,0.6733,0.689,0.7816,0.8903,0.8954,0.8856,0.8856,0.8856,0.8856,0.8853,0.8846,0.8954,0.895,0.894,0.889,0.8604,0.7797,0.6331,0.407,0.0565,0.0,0.1457,0.5717,0.7759,0.8897,0.8886,0.5256,0.257,0.2573,0.4147,0.5156,0.514,0.7507,0.8866,0.8954,0.7279,0.5035,0.201,0.0672,0.0,0.0,0.4143,0.7195,0.8907,0.7217,0.5981,0.5028,0.1562,0.0,0.0071,0.0,0.0,0.0,0.0,0.0,0.0,0.0,0.0,0.0,0.0,0.0,0.0,0.0,0.0,0.0,0.0,-0.4522,0.0,-0.4592,0.0,0.0,0.0,0.0,0.0,-0.4432,-0.3413,-0.5265,-0.4893,-0.391,-0.227,-0.1477,-0.0805,-0.0,0.0,0.0,0.0,0.0,0.0,0.0,0.0,0.0,0.0,0.0,0.0,0.0,0.0,0.0,0.0,0.0,0.0,0.0,0.0,0.2826,0.6986,0.7708,0.7995,0.7965,0.7965,0.7952,0.8048,0.8109,0.8193,0.8404,0.8557,0.8754,0.885,0.8944,0.894,0.894,0.894,0.894,0.894,0.894,0.894,0.894,0.894,0.8954,0.8853,0.8853,0.887,0.7519,0.3238,0.1118,0.1007,0.4024,0.6956,0.8886,0.8866,0.7051,0.5367,0.4583,0.7187,0.8897,0.8873,0.8866,0.8856,0.8846,0.6937,0.4026,0.0112,0.0,0.0,0.0,0.2124,0.5156,0.8923,0.5886,0.5127,0.6401,0.2044,0.0,0.0,0.0,0.0,-0.4083,0.0,0.0,0.0,0.0,-0.3631,0.0,0.0,0.0,0.0,0.0,0.0,0.0,0.0,0.0,0.0,0.0,0.0,0.0,0.0,0.0,0.0,-0.5274,-0.4835,0.0,-0.5896,-0.6634,-0.7688,-0.5326,-0.2711,-0.0101,0.0,0.0,0.0,0.0,0.0,0.0,0.0,0.0,0.0,0.0,0.0,0.0,0.0,0.0,0.0,0.0,0.0,0.0,0.0,0.1712,0.4422,0.7065,0.7969,0.8041,0.8041,0.8038,0.8065,0.8214,0.8364,0.8509,0.8659,0.8815,0.894,0.894,0.894,0.894,0.894,0.894,0.894,0.894,0.894,0.894,0.894,0.894,0.894,0.894,0.8846,0.8863,0.8634,0.3795,0.1005,0.4023,0.6956,0.8886,0.8866,0.886,0.7619,0.4806,0.7182,0.8897,0.8893,0.8873,0.887,0.8893,0.8782,0.6172,0.0224,0.0,0.0,0.0,0.0112,0.3031,0.8947,0.5956,0.3018,0.0236,0.0123,0.0,0.0,0.0,-0.0256,-0.1358,0.0,0.0,0.0,0.0,0.0,0.0,0.0,0.0,0.0,0.0,0.0,0.0,0.0,0.0,0.0,0.0,0.0,0.0,0.0,0.0,0.0,0.0,0.0,0.0,-0.6294,0.0,-0.7775,-0.7024,-0.6262,-0.5336,-0.181,0.0,0.0,0.0,0.0,0.0,0.0,0.0,0.0,0.0,0.0,0.0,0.0,0.0,0.0,0.0,0.0,0.0,0.0,0.1611,0.4318,0.6962,0.7969,0.8038,0.8038,0.8106,0.8201,0.8252,0.8435,0.8645,0.8696,0.8818,0.894,0.894,0.894,0.894,0.894,0.894,0.894,0.894,0.894,0.894,0.894,0.894,0.894,0.894,0.8947,0.8846,0.886,0.7274,0.626,0.7276,0.8301,0.8866,0.8954,0.8853,0.8513,0.7485,0.8291,0.8866,0.8853,0.8954,0.885,0.8873,0.7062,0.5942,0.5841,0.2129,0.0,0.0,0.0,0.1008,0.3031,0.6012,0.481,0.0,0.0,0.0,0.2415,0.0636,0.0,0.0,-0.1191,0.0,-0.2868,0.0,-0.3251,0.0,0.0,0.0,0.0,0.0,0.0,0.0,0.0,0.0,0.0,-0.2917,0.0,0.0,0.0,0.0,0.0,0.0,0.0,0.0,0.0,0.0,0.0,-0.7852,-0.7913,-0.7979,-0.4628,-0.1909,-0.0,0.0,0.0,0.0,0.0,0.0,0.0,0.0,0.0,0.0,0.0,0.0,0.0,0.0,0.0,0.0101,0.101,0.2519,0.4318,0.6962,0.7969,0.8038,0.8038,0.814,0.8279,0.833,0.8513,0.872,0.8774,0.8859,0.894,0.894,0.894,0.894,0.894,0.894,0.894,0.894,0.894,0.894,0.894,0.894,0.894,0.894,0.894,0.8944,0.8846,0.8856,0.8863,0.8863,0.8863,0.8853,0.8944,0.8954,0.8846,0.894,0.8954,0.8954,0.894,0.894,0.8954,0.8873,0.6156,0.4925,0.5727,0.2017,0.0,0.0,0.0,0.0,0.0,0.3838,0.3781,0.0,0.0,0.0]}]]